Time,TemperatureF,DewpointF,PressureIn,WindDirection,WindDirectionDegrees,WindSpeedMPH,WindSpeedGustMPH,Humidity,HourlyPrecipIn,Conditions,Clouds,dailyrainin,SoftwareType,DateUTC
2013-05-01 00:01:00,50.8,27.3,30.28,ENE,67,1.0,1.0,40,0.00,,,0.00,Wunderground v.1.15,2013-05-01 04:01:00,
2013-05-01 00:02:00,50.8,27.9,30.28,East,83,0.0,1.0,41,0.00,,,0.00,Wunderground v.1.15,2013-05-01 04:02:00,
2013-05-01 00:03:00,50.7,27.2,30.28,East,82,0.0,1.0,40,0.00,,,0.00,Wunderground v.1.15,2013-05-01 04:03:00,
2013-05-01 00:05:00,50.6,27.1,30.28,East,82,0.0,3.0,40,0.00,,,0.00,Wunderground v.1.15,2013-05-01 04:05:00,
2013-05-01 00:08:00,50.4,27.6,30.28,East,86,2.0,3.0,41,0.00,,,0.00,Wunderground v.1.15,2013-05-01 04:08:00,
2013-05-01 00:09:00,50.3,26.9,30.28,East,85,0.0,3.0,40,0.00,,,0.00,Wunderground v.1.15,2013-05-01 04:09:00,
2013-05-01 00:11:00,50.2,27.4,30.28,East,86,0.0,1.0,41,0.00,,,0.00,Wunderground v.1.15,2013-05-01 04:11:00,
2013-05-01 00:12:00,50.2,27.4,30.28,East,82,1.0,1.0,41,0.00,,,0.00,Wunderground v.1.15,2013-05-01 04:12:00,
2013-05-01 00:14:00,50.1,27.9,30.28,East,89,2.0,2.0,42,0.00,,,0.00,Wunderground v.1.15,2013-05-01 04:14:00,
2013-05-01 00:17:00,50.0,27.8,30.28,East,82,0.0,2.0,42,0.00,,,0.00,Wunderground v.1.15,2013-05-01 04:17:00,
2013-05-01 00:19:00,50.0,27.2,30.28,East,83,0.0,2.0,41,0.00,,,0.00,Wunderground v.1.15,2013-05-01 04:19:00,
2013-05-01 00:22:00,50.1,27.3,30.29,East,83,0.0,1.0,41,0.00,,,0.00,Wunderground v.1.15,2013-05-01 04:22:00,
2013-05-01 00:23:00,50.1,27.9,30.29,East,88,0.0,1.0,42,0.00,,,0.00,Wunderground v.1.15,2013-05-01 04:23:00,
2013-05-01 00:26:00,50.1,27.3,30.29,East,87,0.0,1.0,41,0.00,,,0.00,Wunderground v.1.15,2013-05-01 04:26:00,
2013-05-01 00:28:00,50.2,26.8,30.29,East,88,1.0,1.0,40,0.00,,,0.00,Wunderground v.1.15,2013-05-01 04:28:00,
2013-05-01 00:29:00,50.3,27.5,30.29,East,90,2.0,2.0,41,0.00,,,0.00,Wunderground v.1.15,2013-05-01 04:29:00,
2013-05-01 00:31:00,50.2,27.4,30.29,East,91,1.0,2.0,41,0.00,,,0.00,Wunderground v.1.15,2013-05-01 04:31:00,
2013-05-01 00:34:00,50.1,27.3,30.29,East,98,2.0,2.0,41,0.00,,,0.00,Wunderground v.1.15,2013-05-01 04:34:00,
2013-05-01 00:36:00,50.2,26.8,30.29,East,97,0.0,2.0,40,0.00,,,0.00,Wunderground v.1.15,2013-05-01 04:36:00,
2013-05-01 00:37:00,50.2,26.8,30.29,East,97,0.0,2.0,40,0.00,,,0.00,Wunderground v.1.15,2013-05-01 04:37:00,
2013-05-01 00:40:00,50.3,27.5,30.28,East,83,1.0,1.0,41,0.00,,,0.00,Wunderground v.1.15,2013-05-01 04:40:00,
2013-05-01 00:41:00,50.3,27.5,30.29,East,80,2.0,2.0,41,0.00,,,0.00,Wunderground v.1.15,2013-05-01 04:41:00,
2013-05-01 00:42:00,50.3,27.5,30.28,East,79,3.0,3.0,41,0.00,,,0.00,Wunderground v.1.15,2013-05-01 04:42:00,
2013-05-01 00:45:00,50.2,27.4,30.28,ENE,74,4.0,4.0,41,0.00,,,0.00,Wunderground v.1.15,2013-05-01 04:45:00,
2013-05-01 00:47:00,50.3,27.5,30.28,East,86,3.0,4.0,41,0.00,,,0.00,Wunderground v.1.15,2013-05-01 04:47:00,
2013-05-01 00:48:00,50.3,28.1,30.28,East,83,1.0,4.0,42,0.00,,,0.00,Wunderground v.1.15,2013-05-01 04:48:00,
2013-05-01 00:51:00,50.3,28.1,30.29,East,88,0.0,4.0,42,0.00,,,0.00,Wunderground v.1.15,2013-05-01 04:51:00,
2013-05-01 00:52:00,50.2,28.0,30.29,East,84,0.0,4.0,42,0.00,,,0.00,Wunderground v.1.15,2013-05-01 04:52:00,
2013-05-01 00:53:00,50.1,27.9,30.29,East,85,0.0,4.0,42,0.00,,,0.00,Wunderground v.1.15,2013-05-01 04:53:00,
2013-05-01 00:55:00,49.9,27.7,30.29,ENE,76,1.0,4.0,42,0.00,,,0.00,Wunderground v.1.15,2013-05-01 04:55:00,
2013-05-01 00:56:00,49.9,27.7,30.29,East,79,1.0,4.0,42,0.00,,,0.00,Wunderground v.1.15,2013-05-01 04:56:00,
2013-05-01 00:57:00,49.8,27.6,30.29,ENE,75,0.0,4.0,42,0.00,,,0.00,Wunderground v.1.15,2013-05-01 04:57:00,
2013-05-01 01:00:00,49.7,27.5,30.29,ENE,78,1.0,1.0,42,0.00,,,0.00,Wunderground v.1.15,2013-05-01 05:00:00,
2013-05-01 01:02:00,49.6,27.4,30.29,ENE,71,3.0,3.0,42,0.00,,,0.00,Wunderground v.1.15,2013-05-01 05:02:00,
2013-05-01 01:03:00,49.5,27.9,30.29,East,97,5.0,5.0,43,0.00,,,0.00,Wunderground v.1.15,2013-05-01 05:03:00,
2013-05-01 01:06:00,49.4,27.8,30.29,East,80,4.0,5.0,43,0.00,,,0.00,Wunderground v.1.15,2013-05-01 05:06:00,
2013-05-01 01:07:00,49.4,27.8,30.28,East,79,4.0,5.0,43,0.00,,,0.00,Wunderground v.1.15,2013-05-01 05:07:00,
2013-05-01 01:10:00,49.3,27.7,30.29,East,88,4.0,4.0,43,0.00,,,0.00,Wunderground v.1.15,2013-05-01 05:10:00,
2013-05-01 01:12:00,49.3,27.7,30.28,ENE,76,4.0,4.0,43,0.00,,,0.00,Wunderground v.1.15,2013-05-01 05:12:00,
2013-05-01 01:16:00,49.2,28.2,30.29,ENE,71,2.0,4.0,44,0.00,,,0.00,Wunderground v.1.15,2013-05-01 05:16:00,
2013-05-01 01:17:00,49.2,28.2,30.29,ENE,64,2.0,4.0,44,0.00,,,0.00,Wunderground v.1.15,2013-05-01 05:17:00,
2013-05-01 01:20:00,49.1,27.5,30.29,ENE,59,3.0,3.0,43,0.00,,,0.00,Wunderground v.1.15,2013-05-01 05:20:00,
2013-05-01 01:22:00,49.1,28.1,30.29,ENE,76,2.0,3.0,44,0.00,,,0.00,Wunderground v.1.15,2013-05-01 05:22:00,
2013-05-01 01:24:00,49.1,28.1,30.30,East,82,3.0,3.0,44,0.00,,,0.00,Wunderground v.1.15,2013-05-01 05:24:00,
2013-05-01 01:25:00,49.0,28.0,30.30,ENE,77,2.0,3.0,44,0.00,,,0.00,Wunderground v.1.15,2013-05-01 05:25:00,
2013-05-01 01:27:00,48.9,27.9,30.30,East,80,2.0,3.0,44,0.00,,,0.00,Wunderground v.1.15,2013-05-01 05:27:00,
2013-05-01 01:31:00,49.0,28.0,30.30,ENE,76,3.0,3.0,44,0.00,,,0.00,Wunderground v.1.15,2013-05-01 05:31:00,
2013-05-01 01:33:00,49.0,28.0,30.30,ENE,74,4.0,4.0,44,0.00,,,0.00,Wunderground v.1.15,2013-05-01 05:33:00,
2013-05-01 01:34:00,49.0,28.0,30.30,East,82,3.0,4.0,44,0.00,,,0.00,Wunderground v.1.15,2013-05-01 05:34:00,
2013-05-01 01:35:00,49.0,28.0,30.30,ENE,76,3.0,4.0,44,0.00,,,0.00,Wunderground v.1.15,2013-05-01 05:35:00,
2013-05-01 01:39:00,49.0,28.0,30.30,ENE,76,1.0,4.0,44,0.00,,,0.00,Wunderground v.1.15,2013-05-01 05:39:00,
2013-05-01 01:41:00,49.0,28.0,30.30,East,83,2.0,3.0,44,0.00,,,0.00,Wunderground v.1.15,2013-05-01 05:41:00,
2013-05-01 01:43:00,49.0,28.0,30.31,East,101,1.0,3.0,44,0.00,,,0.00,Wunderground v.1.15,2013-05-01 05:43:00,
2013-05-01 01:45:00,48.9,27.9,30.31,East,97,1.0,4.0,44,0.00,,,0.00,Wunderground v.1.15,2013-05-01 05:45:00,
2013-05-01 01:47:00,48.8,27.8,30.31,ENE,68,2.0,4.0,44,0.00,,,0.00,Wunderground v.1.15,2013-05-01 05:47:00,
2013-05-01 01:48:00,48.8,27.8,30.31,ENE,78,3.0,4.0,44,0.00,,,0.00,Wunderground v.1.15,2013-05-01 05:48:00,
2013-05-01 01:49:00,48.9,27.4,30.31,ENE,77,3.0,4.0,43,0.00,,,0.00,Wunderground v.1.15,2013-05-01 05:49:00,
2013-05-01 01:52:00,49.0,27.5,30.31,East,80,3.0,5.0,43,0.00,,,0.00,Wunderground v.1.15,2013-05-01 05:52:00,
2013-05-01 01:54:00,49.1,27.5,30.31,East,83,4.0,5.0,43,0.00,,,0.00,Wunderground v.1.15,2013-05-01 05:54:00,
2013-05-01 01:56:00,49.1,27.5,30.31,East,84,2.0,5.0,43,0.00,,,0.00,Wunderground v.1.15,2013-05-01 05:56:00,
2013-05-01 01:57:00,49.1,27.5,30.31,East,94,4.0,5.0,43,0.00,,,0.00,Wunderground v.1.15,2013-05-01 05:57:00,
2013-05-01 01:59:00,49.2,27.6,30.31,ENE,70,3.0,5.0,43,0.00,,,0.00,Wunderground v.1.15,2013-05-01 05:59:00,
2013-05-01 02:01:00,49.2,27.6,30.31,East,84,2.0,3.0,43,0.00,,,0.00,Wunderground v.1.15,2013-05-01 06:01:00,
2013-05-01 02:02:00,49.1,27.5,30.31,East,83,3.0,3.0,43,0.00,,,0.00,Wunderground v.1.15,2013-05-01 06:02:00,
2013-05-01 02:04:00,49.1,27.5,30.31,ENE,67,3.0,6.0,43,0.00,,,0.00,Wunderground v.1.15,2013-05-01 06:04:00,
2013-05-01 02:06:00,49.1,27.5,30.31,East,84,1.0,6.0,43,0.00,,,0.00,Wunderground v.1.15,2013-05-01 06:06:00,
2013-05-01 02:07:00,49.1,27.5,30.31,East,84,1.0,6.0,43,0.00,,,0.00,Wunderground v.1.15,2013-05-01 06:07:00,
2013-05-01 02:09:00,48.9,27.9,30.31,East,92,1.0,6.0,44,0.00,,,0.00,Wunderground v.1.15,2013-05-01 06:09:00,
2013-05-01 02:12:00,48.5,28.1,30.31,East,92,1.0,4.0,45,0.00,,,0.00,Wunderground v.1.15,2013-05-01 06:12:00,
2013-05-01 02:14:00,48.2,27.3,30.31,East,86,0.0,4.0,44,0.00,,,0.00,Wunderground v.1.15,2013-05-01 06:14:00,
2013-05-01 02:17:00,48.0,27.6,30.31,East,95,5.0,5.0,45,0.00,,,0.00,Wunderground v.1.15,2013-05-01 06:17:00,
2013-05-01 02:20:00,48.0,27.1,30.31,East,81,2.0,2.0,44,0.00,,,0.00,Wunderground v.1.15,2013-05-01 06:20:00,
2013-05-01 02:22:00,48.1,27.2,30.31,ENE,59,2.0,7.0,44,0.00,,,0.00,Wunderground v.1.15,2013-05-01 06:22:00,
2013-05-01 02:23:00,48.2,27.8,30.31,East,80,3.0,7.0,45,0.00,,,0.00,Wunderground v.1.15,2013-05-01 06:23:00,
2013-05-01 02:25:00,48.3,27.4,30.31,East,82,4.0,7.0,44,0.00,,,0.00,Wunderground v.1.15,2013-05-01 06:25:00,
2013-05-01 02:27:00,48.3,27.4,30.31,East,90,1.0,7.0,44,0.00,,,0.00,Wunderground v.1.15,2013-05-01 06:27:00,
2013-05-01 02:28:00,48.3,28.5,30.31,NE,55,5.0,7.0,46,0.00,,,0.00,Wunderground v.1.15,2013-05-01 06:28:00,
2013-05-01 02:31:00,47.9,28.1,30.31,ENE,58,4.0,4.0,46,0.00,,,0.00,Wunderground v.1.15,2013-05-01 06:31:00,
2013-05-01 02:32:00,47.9,27.6,30.31,ENE,62,5.0,5.0,45,0.00,,,0.00,Wunderground v.1.15,2013-05-01 06:32:00,
2013-05-01 02:33:00,47.8,27.5,30.31,ENE,69,4.0,5.0,45,0.00,,,0.00,Wunderground v.1.15,2013-05-01 06:33:00,
2013-05-01 02:36:00,47.8,28.0,30.31,East,87,0.0,5.0,46,0.00,,,0.00,Wunderground v.1.15,2013-05-01 06:36:00,
2013-05-01 02:37:00,47.8,27.5,30.31,East,93,0.0,5.0,45,0.00,,,0.00,Wunderground v.1.15,2013-05-01 06:37:00,
2013-05-01 02:38:00,47.7,27.9,30.31,East,93,0.0,5.0,46,0.00,,,0.00,Wunderground v.1.15,2013-05-01 06:38:00,
2013-05-01 02:39:00,47.7,27.9,30.31,East,93,0.0,5.0,46,0.00,,,0.00,Wunderground v.1.15,2013-05-01 06:39:00,
2013-05-01 02:42:00,47.3,27.5,30.31,East,93,0.0,1.0,46,0.00,,,0.00,Wunderground v.1.15,2013-05-01 06:42:00,
2013-05-01 02:43:00,47.2,27.5,30.31,East,84,2.0,2.0,46,0.00,,,0.00,Wunderground v.1.15,2013-05-01 06:43:00,
2013-05-01 02:44:00,47.0,27.3,30.31,ENE,69,0.0,5.0,46,0.00,,,0.00,Wunderground v.1.15,2013-05-01 06:44:00,
2013-05-01 02:47:00,47.0,27.3,30.31,ENE,78,0.0,5.0,46,0.00,,,0.00,Wunderground v.1.15,2013-05-01 06:47:00,
2013-05-01 02:48:00,47.1,27.4,30.31,East,86,2.0,5.0,46,0.00,,,0.00,Wunderground v.1.15,2013-05-01 06:48:00,
2013-05-01 02:49:00,47.0,27.8,30.31,East,94,2.0,5.0,47,0.00,,,0.00,Wunderground v.1.15,2013-05-01 06:49:00,
2013-05-01 02:52:00,46.9,27.7,30.31,East,97,1.0,5.0,47,0.00,,,0.00,Wunderground v.1.15,2013-05-01 06:52:00,
2013-05-01 02:53:00,46.9,27.7,30.32,East,101,1.0,5.0,47,0.00,,,0.00,Wunderground v.1.15,2013-05-01 06:53:00,
2013-05-01 02:54:00,46.8,27.6,30.32,NE,43,3.0,5.0,47,0.00,,,0.00,Wunderground v.1.15,2013-05-01 06:54:00,
2013-05-01 02:57:00,46.9,27.7,30.32,East,101,1.0,5.0,47,0.00,,,0.00,Wunderground v.1.15,2013-05-01 06:57:00,
2013-05-01 02:58:00,46.9,27.7,30.32,ENE,72,3.0,5.0,47,0.00,,,0.00,Wunderground v.1.15,2013-05-01 06:58:00,
2013-05-01 02:59:00,46.9,27.2,30.32,East,86,2.0,5.0,46,0.00,,,0.00,Wunderground v.1.15,2013-05-01 06:59:00,
2013-05-01 03:03:00,47.1,27.4,30.32,East,83,0.0,5.0,46,0.00,,,0.00,Wunderground v.1.15,2013-05-01 07:03:00,
2013-05-01 03:04:00,47.1,27.4,30.32,NE,49,0.0,5.0,46,0.00,,,0.00,Wunderground v.1.15,2013-05-01 07:04:00,
2013-05-01 03:05:00,47.1,27.4,30.32,NE,42,1.0,5.0,46,0.00,,,0.00,Wunderground v.1.15,2013-05-01 07:05:00,
2013-05-01 03:08:00,47.2,27.5,30.32,NE,44,1.0,5.0,46,0.00,,,0.00,Wunderground v.1.15,2013-05-01 07:08:00,
2013-05-01 03:09:00,47.2,28.0,30.32,NE,45,0.0,5.0,47,0.00,,,0.00,Wunderground v.1.15,2013-05-01 07:09:00,
2013-05-01 03:10:00,47.2,28.5,30.32,NE,46,0.0,5.0,48,0.00,,,0.00,Wunderground v.1.15,2013-05-01 07:10:00,
2013-05-01 03:11:00,47.1,27.9,30.32,NE,50,0.0,1.0,47,0.00,,,0.00,Wunderground v.1.15,2013-05-01 07:11:00,
2013-05-01 03:14:00,46.7,28.0,30.32,ENE,78,2.0,3.0,48,0.00,,,0.00,Wunderground v.1.15,2013-05-01 07:14:00,
2013-05-01 03:15:00,46.5,27.8,30.32,East,80,2.0,3.0,48,0.00,,,0.00,Wunderground v.1.15,2013-05-01 07:15:00,
2013-05-01 03:18:00,46.4,27.2,30.33,ENE,78,1.0,3.0,47,0.00,,,0.00,Wunderground v.1.15,2013-05-01 07:18:00,
2013-05-01 03:19:00,46.5,27.3,30.33,East,86,0.0,3.0,47,0.00,,,0.00,Wunderground v.1.15,2013-05-01 07:19:00,
2013-05-01 03:20:00,46.5,27.3,30.33,East,84,1.0,1.0,47,0.00,,,0.00,Wunderground v.1.15,2013-05-01 07:20:00,
2013-05-01 03:23:00,46.4,27.2,30.33,East,87,0.0,1.0,47,0.00,,,0.00,Wunderground v.1.15,2013-05-01 07:23:00,
2013-05-01 03:24:00,46.4,26.7,30.33,East,86,0.0,1.0,46,0.00,,,0.00,Wunderground v.1.15,2013-05-01 07:24:00,
2013-05-01 03:25:00,46.4,27.2,30.33,ENE,69,0.0,1.0,47,0.00,,,0.00,Wunderground v.1.15,2013-05-01 07:25:00,
2013-05-01 03:28:00,46.5,27.3,30.33,East,83,0.0,1.0,47,0.00,,,0.00,Wunderground v.1.15,2013-05-01 07:28:00,
2013-05-01 03:29:00,46.5,27.3,30.33,East,84,0.0,1.0,47,0.00,,,0.00,Wunderground v.1.15,2013-05-01 07:29:00,
2013-05-01 03:30:00,46.5,26.8,30.33,East,90,0.0,1.0,46,0.00,,,0.00,Wunderground v.1.15,2013-05-01 07:30:00,
2013-05-01 03:31:00,46.5,27.3,30.33,East,90,1.0,2.0,47,0.00,,,0.00,Wunderground v.1.15,2013-05-01 07:31:00,
2013-05-01 03:33:00,46.7,27.0,30.33,East,90,0.0,2.0,46,0.00,,,0.00,Wunderground v.1.15,2013-05-01 07:33:00,
2013-05-01 03:34:00,46.8,27.1,30.33,East,90,0.0,2.0,46,0.00,,,0.00,Wunderground v.1.15,2013-05-01 07:34:00,
2013-05-01 03:35:00,46.9,27.2,30.33,East,90,0.0,2.0,46,0.00,,,0.00,Wunderground v.1.15,2013-05-01 07:35:00,
2013-05-01 03:37:00,47.0,27.3,30.33,East,90,0.0,2.0,46,0.00,,,0.00,Wunderground v.1.15,2013-05-01 07:37:00,
2013-05-01 03:38:00,47.2,27.5,30.33,East,90,0.0,2.0,46,0.00,,,0.00,Wunderground v.1.15,2013-05-01 07:38:00,
2013-05-01 03:39:00,47.3,27.0,30.33,East,90,0.0,2.0,45,0.00,,,0.00,Wunderground v.1.15,2013-05-01 07:39:00,
2013-05-01 03:41:00,47.4,27.6,30.33,East,90,0.0,2.0,46,0.00,,,0.00,Wunderground v.1.15,2013-05-01 07:41:00,
2013-05-01 03:42:00,47.5,27.7,30.33,East,90,0.0,2.0,46,0.00,,,0.00,Wunderground v.1.15,2013-05-01 07:42:00,
2013-05-01 03:44:00,47.5,27.7,30.33,East,90,0.0,2.0,46,0.00,,,0.00,Wunderground v.1.15,2013-05-01 07:44:00,
2013-05-01 03:45:00,47.5,27.7,30.33,East,90,0.0,2.0,46,0.00,,,0.00,Wunderground v.1.15,2013-05-01 07:45:00,
2013-05-01 03:46:00,47.5,27.7,30.33,East,90,0.0,2.0,46,0.00,,,0.00,Wunderground v.1.15,2013-05-01 07:46:00,
2013-05-01 03:47:00,47.6,27.8,30.33,East,90,0.0,2.0,46,0.00,,,0.00,Wunderground v.1.15,2013-05-01 07:47:00,
2013-05-01 03:49:00,47.5,28.3,30.34,East,80,2.0,2.0,47,0.00,,,0.00,Wunderground v.1.15,2013-05-01 07:49:00,
2013-05-01 03:50:00,47.4,28.2,30.34,East,82,1.0,2.0,47,0.00,,,0.00,Wunderground v.1.15,2013-05-01 07:50:00,
2013-05-01 03:52:00,47.2,28.0,30.34,East,90,1.0,2.0,47,0.00,,,0.00,Wunderground v.1.15,2013-05-01 07:52:00,
2013-05-01 03:55:00,47.0,27.8,30.34,East,80,0.0,2.0,47,0.00,,,0.00,Wunderground v.1.15,2013-05-01 07:55:00,
2013-05-01 03:56:00,46.9,27.2,30.34,East,82,0.0,2.0,46,0.00,,,0.00,Wunderground v.1.15,2013-05-01 07:56:00,
2013-05-01 03:57:00,46.9,27.7,30.34,East,87,1.0,2.0,47,0.00,,,0.00,Wunderground v.1.15,2013-05-01 07:57:00,
2013-05-01 03:58:00,46.9,27.2,30.34,East,79,0.0,2.0,46,0.00,,,0.00,Wunderground v.1.15,2013-05-01 07:58:00,
2013-05-01 04:00:00,47.0,27.3,30.33,East,79,0.0,2.0,46,0.00,,,0.00,Wunderground v.1.15,2013-05-01 08:00:00,
2013-05-01 04:01:00,47.2,27.5,30.33,East,82,1.0,1.0,46,0.00,,,0.00,Wunderground v.1.15,2013-05-01 08:01:00,
2013-05-01 04:02:00,47.2,27.5,30.34,East,82,1.0,1.0,46,0.00,,,0.00,Wunderground v.1.15,2013-05-01 08:02:00,
2013-05-01 04:03:00,47.3,27.5,30.33,East,86,0.0,1.0,46,0.00,,,0.00,Wunderground v.1.15,2013-05-01 08:03:00,
2013-05-01 04:05:00,47.4,27.6,30.34,East,86,0.0,1.0,46,0.00,,,0.00,Wunderground v.1.15,2013-05-01 08:05:00,
2013-05-01 04:06:00,47.4,28.2,30.34,East,86,0.0,1.0,47,0.00,,,0.00,Wunderground v.1.15,2013-05-01 08:06:00,
2013-05-01 04:07:00,47.4,27.6,30.34,East,86,0.0,1.0,46,0.00,,,0.00,Wunderground v.1.15,2013-05-01 08:07:00,
2013-05-01 04:09:00,47.6,27.3,30.34,East,86,0.0,1.0,45,0.00,,,0.00,Wunderground v.1.15,2013-05-01 08:09:00,
2013-05-01 04:10:00,47.6,27.8,30.34,East,86,0.0,0.0,46,0.00,,,0.00,Wunderground v.1.15,2013-05-01 08:10:00,
2013-05-01 04:11:00,47.7,27.9,30.34,East,86,0.0,0.0,46,0.00,,,0.00,Wunderground v.1.15,2013-05-01 08:11:00,
2013-05-01 04:12:00,47.7,27.9,30.34,East,86,0.0,0.0,46,0.00,,,0.00,Wunderground v.1.15,2013-05-01 08:12:00,
2013-05-01 04:15:00,47.9,27.6,30.34,East,86,0.0,1.0,45,0.00,,,0.00,Wunderground v.1.15,2013-05-01 08:15:00,
2013-05-01 04:16:00,47.9,27.6,30.34,East,86,0.0,1.0,45,0.00,,,0.00,Wunderground v.1.15,2013-05-01 08:16:00,
2013-05-01 04:17:00,48.0,27.6,30.34,East,86,0.0,1.0,45,0.00,,,0.00,Wunderground v.1.15,2013-05-01 08:17:00,
2013-05-01 04:20:00,48.2,28.4,30.34,East,86,0.0,1.0,46,0.00,,,0.00,Wunderground v.1.15,2013-05-01 08:20:00,
2013-05-01 04:21:00,48.2,28.4,30.34,East,86,0.0,1.0,46,0.00,,,0.00,Wunderground v.1.15,2013-05-01 08:21:00,
2013-05-01 04:22:00,48.1,27.7,30.34,East,86,0.0,1.0,45,0.00,,,0.00,Wunderground v.1.15,2013-05-01 08:22:00,
2013-05-01 04:25:00,48.0,28.2,30.34,East,86,0.0,1.0,46,0.00,,,0.00,Wunderground v.1.15,2013-05-01 08:25:00,
2013-05-01 04:26:00,47.9,28.1,30.34,East,86,0.0,1.0,46,0.00,,,0.00,Wunderground v.1.15,2013-05-01 08:26:00,
2013-05-01 04:27:00,47.9,28.1,30.34,East,86,0.0,1.0,46,0.00,,,0.00,Wunderground v.1.15,2013-05-01 08:27:00,
2013-05-01 04:30:00,47.7,27.9,30.34,East,86,2.0,2.0,46,0.00,,,0.00,Wunderground v.1.15,2013-05-01 08:30:00,
2013-05-01 04:31:00,47.7,27.9,30.34,East,86,1.0,2.0,46,0.00,,,0.00,Wunderground v.1.15,2013-05-01 08:31:00,
2013-05-01 04:32:00,47.6,27.8,30.34,East,86,0.0,2.0,46,0.00,,,0.00,Wunderground v.1.15,2013-05-01 08:32:00,
2013-05-01 04:33:00,47.6,27.8,30.34,East,86,0.0,2.0,46,0.00,,,0.00,Wunderground v.1.15,2013-05-01 08:33:00,
2013-05-01 04:36:00,47.5,28.3,30.34,East,84,1.0,2.0,47,0.00,,,0.00,Wunderground v.1.15,2013-05-01 08:36:00,
2013-05-01 04:38:00,47.4,28.2,30.34,East,84,1.0,2.0,47,0.00,,,0.00,Wunderground v.1.15,2013-05-01 08:38:00,
2013-05-01 04:40:00,47.3,28.1,30.34,East,83,0.0,1.0,47,0.00,,,0.00,Wunderground v.1.15,2013-05-01 08:40:00,
2013-05-01 04:41:00,47.3,28.1,30.34,East,80,0.0,1.0,47,0.00,,,0.00,Wunderground v.1.15,2013-05-01 08:41:00,
2013-05-01 04:43:00,47.3,28.6,30.34,East,81,0.0,1.0,48,0.00,,,0.00,Wunderground v.1.15,2013-05-01 08:43:00,
2013-05-01 04:45:00,47.4,28.2,30.34,East,81,0.0,1.0,47,0.00,,,0.00,Wunderground v.1.15,2013-05-01 08:45:00,
2013-05-01 04:46:00,47.4,27.6,30.34,East,81,0.0,1.0,46,0.00,,,0.00,Wunderground v.1.15,2013-05-01 08:46:00,
2013-05-01 04:47:00,47.4,28.7,30.34,East,81,0.0,1.0,48,0.00,,,0.00,Wunderground v.1.15,2013-05-01 08:47:00,
2013-05-01 04:48:00,47.4,28.7,30.34,East,81,0.0,1.0,48,0.00,,,0.00,Wunderground v.1.15,2013-05-01 08:48:00,
2013-05-01 04:49:00,47.4,28.7,30.34,ENE,76,0.0,1.0,48,0.00,,,0.00,Wunderground v.1.15,2013-05-01 08:49:00,
2013-05-01 04:50:00,47.4,28.7,30.34,East,80,0.0,1.0,48,0.00,,,0.00,Wunderground v.1.15,2013-05-01 08:50:00,
2013-05-01 04:52:00,47.4,28.2,30.34,ENE,75,0.0,1.0,47,0.00,,,0.00,Wunderground v.1.15,2013-05-01 08:52:00,
2013-05-01 04:53:00,47.4,28.2,30.34,ENE,76,0.0,1.0,47,0.00,,,0.00,Wunderground v.1.15,2013-05-01 08:53:00,
2013-05-01 04:54:00,47.4,28.2,30.34,East,90,0.0,2.0,47,0.00,,,0.00,Wunderground v.1.15,2013-05-01 08:54:00,
2013-05-01 04:56:00,47.5,27.7,30.34,East,90,0.0,2.0,46,0.00,,,0.00,Wunderground v.1.15,2013-05-01 08:56:00,
2013-05-01 04:58:00,47.7,27.9,30.35,East,90,0.0,2.0,46,0.00,,,0.00,Wunderground v.1.15,2013-05-01 08:58:00,
2013-05-01 04:59:00,47.8,28.0,30.34,East,90,0.0,2.0,46,0.00,,,0.00,Wunderground v.1.15,2013-05-01 08:59:00,
2013-05-01 05:01:00,47.9,27.6,30.34,East,90,0.0,1.0,45,0.00,,,0.00,Wunderground v.1.15,2013-05-01 09:01:00,
2013-05-01 05:03:00,48.0,28.2,30.34,East,89,1.0,2.0,46,0.00,,,0.00,Wunderground v.1.15,2013-05-01 09:03:00,
2013-05-01 05:04:00,48.0,28.2,30.34,East,90,1.0,2.0,46,0.00,,,0.00,Wunderground v.1.15,2013-05-01 09:04:00,
2013-05-01 05:06:00,47.9,28.1,30.34,East,88,0.0,2.0,46,0.00,,,0.00,Wunderground v.1.15,2013-05-01 09:06:00,
2013-05-01 05:08:00,47.9,28.1,30.34,East,86,0.0,2.0,46,0.00,,,0.00,Wunderground v.1.15,2013-05-01 09:08:00,
2013-05-01 05:09:00,48.0,28.2,30.34,East,86,0.0,2.0,46,0.00,,,0.00,Wunderground v.1.15,2013-05-01 09:09:00,
2013-05-01 05:10:00,48.0,28.2,30.34,East,86,0.0,0.0,46,0.00,,,0.00,Wunderground v.1.15,2013-05-01 09:10:00,
2013-05-01 05:11:00,48.0,28.7,30.34,East,86,0.0,0.0,47,0.00,,,0.00,Wunderground v.1.15,2013-05-01 09:11:00,
2013-05-01 05:13:00,48.0,28.7,30.34,East,91,0.0,0.0,47,0.00,,,0.00,Wunderground v.1.15,2013-05-01 09:13:00,
2013-05-01 05:14:00,48.0,28.7,30.35,East,91,0.0,0.0,47,0.00,,,0.00,Wunderground v.1.15,2013-05-01 09:14:00,
2013-05-01 05:15:00,48.0,28.7,30.34,East,91,0.0,0.0,47,0.00,,,0.00,Wunderground v.1.15,2013-05-01 09:15:00,
2013-05-01 05:16:00,48.0,28.2,30.34,East,91,0.0,0.0,46,0.00,,,0.00,Wunderground v.1.15,2013-05-01 09:16:00,
2013-05-01 05:18:00,48.1,28.3,30.34,East,91,0.0,0.0,46,0.00,,,0.00,Wunderground v.1.15,2013-05-01 09:18:00,
2013-05-01 05:19:00,48.1,28.3,30.35,East,91,0.0,0.0,46,0.00,,,0.00,Wunderground v.1.15,2013-05-01 09:19:00,
2013-05-01 05:20:00,48.0,28.2,30.35,East,91,0.0,0.0,46,0.00,,,0.00,Wunderground v.1.15,2013-05-01 09:20:00,
2013-05-01 05:21:00,48.1,28.3,30.35,East,91,0.0,0.0,46,0.00,,,0.00,Wunderground v.1.15,2013-05-01 09:21:00,
2013-05-01 05:22:00,48.1,28.3,30.35,East,91,0.0,0.0,46,0.00,,,0.00,Wunderground v.1.15,2013-05-01 09:22:00,
2013-05-01 05:24:00,48.3,27.9,30.35,East,91,0.0,0.0,45,0.00,,,0.00,Wunderground v.1.15,2013-05-01 09:24:00,
2013-05-01 05:25:00,48.3,28.5,30.35,East,91,0.0,0.0,46,0.00,,,0.00,Wunderground v.1.15,2013-05-01 09:25:00,
2013-05-01 05:27:00,48.3,28.5,30.35,East,91,0.0,0.0,46,0.00,,,0.00,Wunderground v.1.15,2013-05-01 09:27:00,
2013-05-01 05:29:00,48.3,28.5,30.35,East,91,0.0,0.0,46,0.00,,,0.00,Wunderground v.1.15,2013-05-01 09:29:00,
2013-05-01 05:30:00,48.3,28.5,30.35,East,91,0.0,0.0,46,0.00,,,0.00,Wunderground v.1.15,2013-05-01 09:30:00,
2013-05-01 05:32:00,48.2,28.4,30.35,East,91,0.0,0.0,46,0.00,,,0.00,Wunderground v.1.15,2013-05-01 09:32:00,
2013-05-01 05:34:00,48.2,28.4,30.35,East,91,0.0,0.0,46,0.00,,,0.00,Wunderground v.1.15,2013-05-01 09:34:00,
2013-05-01 05:35:00,48.2,28.4,30.35,East,91,0.0,1.0,46,0.00,,,0.00,Wunderground v.1.15,2013-05-01 09:35:00,
2013-05-01 05:37:00,48.3,27.9,30.35,East,91,0.0,1.0,45,0.00,,,0.00,Wunderground v.1.15,2013-05-01 09:37:00,
2013-05-01 05:38:00,48.3,27.9,30.35,East,91,0.0,1.0,45,0.00,,,0.00,Wunderground v.1.15,2013-05-01 09:38:00,
2013-05-01 05:40:00,48.4,28.0,30.35,East,97,1.0,1.0,45,0.00,,,0.00,Wunderground v.1.15,2013-05-01 09:40:00,
2013-05-01 05:41:00,48.4,29.1,30.35,East,96,1.0,2.0,47,0.00,,,0.00,Wunderground v.1.15,2013-05-01 09:41:00,
2013-05-01 05:42:00,48.1,28.8,30.35,East,96,1.0,2.0,47,0.00,,,0.00,Wunderground v.1.15,2013-05-01 09:42:00,
2013-05-01 05:43:00,48.1,28.3,30.35,East,97,1.0,2.0,46,0.00,,,0.00,Wunderground v.1.15,2013-05-01 09:43:00,
2013-05-01 05:46:00,48.3,28.5,30.35,East,97,0.0,2.0,46,0.00,,,0.00,Wunderground v.1.15,2013-05-01 09:46:00,
2013-05-01 05:47:00,48.4,28.5,30.35,East,97,0.0,2.0,46,0.00,,,0.00,Wunderground v.1.15,2013-05-01 09:47:00,
2013-05-01 05:48:00,48.5,28.6,30.35,East,97,0.0,2.0,46,0.00,,,0.00,Wunderground v.1.15,2013-05-01 09:48:00,
2013-05-01 05:49:00,48.6,28.2,30.35,East,97,0.0,2.0,45,0.00,,,0.00,Wunderground v.1.15,2013-05-01 09:49:00,
2013-05-01 05:51:00,48.7,28.8,30.35,East,88,2.0,2.0,46,0.00,,,0.00,Wunderground v.1.15,2013-05-01 09:51:00,
2013-05-01 05:52:00,48.7,28.8,30.35,East,88,1.0,2.0,46,0.00,,,0.00,Wunderground v.1.15,2013-05-01 09:52:00,
2013-05-01 05:54:00,48.7,28.8,30.35,East,85,1.0,2.0,46,0.00,,,0.00,Wunderground v.1.15,2013-05-01 09:54:00,
2013-05-01 05:56:00,48.9,28.5,30.35,East,87,0.0,2.0,45,0.00,,,0.00,Wunderground v.1.15,2013-05-01 09:56:00,
2013-05-01 05:57:00,48.9,28.5,30.35,East,87,0.0,2.0,45,0.00,,,0.00,Wunderground v.1.15,2013-05-01 09:57:00,
2013-05-01 05:59:00,49.0,28.6,30.36,East,89,0.0,2.0,45,0.00,,,0.00,Wunderground v.1.15,2013-05-01 09:59:00,
2013-05-01 06:00:00,49.1,28.7,30.36,East,88,0.0,1.0,45,0.00,,,0.00,Wunderground v.1.15,2013-05-01 10:00:00,
2013-05-01 06:01:00,49.1,28.7,30.36,East,88,1.0,1.0,45,0.00,,,0.00,Wunderground v.1.15,2013-05-01 10:01:00,
2013-05-01 06:02:00,49.2,28.7,30.36,East,87,0.0,1.0,45,0.00,,,0.00,Wunderground v.1.15,2013-05-01 10:02:00,
2013-05-01 06:04:00,49.1,28.7,30.36,East,86,1.0,2.0,45,0.00,,,0.00,Wunderground v.1.15,2013-05-01 10:04:00,
2013-05-01 06:05:00,49.0,29.1,30.36,East,87,1.0,2.0,46,0.00,,,0.00,Wunderground v.1.15,2013-05-01 10:05:00,
2013-05-01 06:06:00,48.8,29.4,30.36,East,90,1.0,2.0,47,0.00,,,0.00,Wunderground v.1.15,2013-05-01 10:06:00,
2013-05-01 06:07:00,48.7,29.4,30.36,East,89,0.0,2.0,47,0.00,,,0.00,Wunderground v.1.15,2013-05-01 10:07:00,
2013-05-01 06:08:00,48.6,29.3,30.36,East,91,1.0,2.0,47,0.00,,,0.00,Wunderground v.1.15,2013-05-01 10:08:00,
2013-05-01 06:09:00,48.5,29.2,30.36,East,89,0.0,2.0,47,0.00,,,0.00,Wunderground v.1.15,2013-05-01 10:09:00,
2013-05-01 06:10:00,48.4,29.1,30.36,East,90,1.0,1.0,47,0.00,,,0.00,Wunderground v.1.15,2013-05-01 10:10:00,
2013-05-01 06:12:00,48.5,29.2,30.36,East,90,0.0,2.0,47,0.00,,,0.00,Wunderground v.1.15,2013-05-01 10:12:00,
2013-05-01 06:13:00,48.6,28.7,30.36,East,89,1.0,2.0,46,0.00,,,0.00,Wunderground v.1.15,2013-05-01 10:13:00,
2013-05-01 06:14:00,48.8,28.9,30.36,East,86,1.0,2.0,46,0.00,,,0.00,Wunderground v.1.15,2013-05-01 10:14:00,
2013-05-01 06:15:00,49.0,29.1,30.36,East,81,1.0,2.0,46,0.00,,,0.00,Wunderground v.1.15,2013-05-01 10:15:00,
2013-05-01 06:17:00,49.2,29.3,30.36,East,86,0.0,2.0,46,0.00,,,0.00,Wunderground v.1.15,2013-05-01 10:17:00,
2013-05-01 06:18:00,49.3,29.4,30.36,East,84,0.0,2.0,46,0.00,,,0.00,Wunderground v.1.15,2013-05-01 10:18:00,
2013-05-01 06:19:00,49.4,29.5,30.36,East,84,0.0,2.0,46,0.00,,,0.00,Wunderground v.1.15,2013-05-01 10:19:00,
2013-05-01 06:21:00,49.5,29.6,30.36,ENE,78,0.0,1.0,46,0.00,,,0.00,Wunderground v.1.15,2013-05-01 10:21:00,
2013-05-01 06:22:00,49.5,29.6,30.36,ENE,78,0.0,1.0,46,0.00,,,0.00,Wunderground v.1.15,2013-05-01 10:22:00,
2013-05-01 06:23:00,49.6,29.6,30.36,ENE,78,0.0,1.0,46,0.00,,,0.00,Wunderground v.1.15,2013-05-01 10:23:00,
2013-05-01 06:24:00,49.6,29.1,30.36,ENE,78,0.0,1.0,45,0.00,,,0.00,Wunderground v.1.15,2013-05-01 10:24:00,
2013-05-01 06:25:00,49.6,29.6,30.36,ENE,78,0.0,1.0,46,0.00,,,0.00,Wunderground v.1.15,2013-05-01 10:25:00,
2013-05-01 06:26:00,49.6,29.1,30.36,ENE,78,0.0,1.0,45,0.00,,,0.00,Wunderground v.1.15,2013-05-01 10:26:00,
2013-05-01 06:27:00,49.6,29.1,30.36,ENE,78,0.0,1.0,45,0.00,,,0.00,Wunderground v.1.15,2013-05-01 10:27:00,
2013-05-01 06:28:00,49.6,29.1,30.36,ENE,76,0.0,1.0,45,0.00,,,0.00,Wunderground v.1.15,2013-05-01 10:28:00,
2013-05-01 06:29:00,49.6,29.1,30.36,ENE,76,0.0,1.0,45,0.00,,,0.00,Wunderground v.1.15,2013-05-01 10:29:00,
2013-05-01 06:30:00,49.6,29.1,30.36,ENE,78,0.0,0.0,45,0.00,,,0.00,Wunderground v.1.15,2013-05-01 10:30:00,
2013-05-01 06:31:00,49.7,29.2,30.37,East,80,0.0,1.0,45,0.00,,,0.00,Wunderground v.1.15,2013-05-01 10:31:00,
2013-05-01 06:32:00,49.7,29.2,30.37,East,80,1.0,1.0,45,0.00,,,0.00,Wunderground v.1.15,2013-05-01 10:32:00,
2013-05-01 06:34:00,49.7,29.2,30.37,ENE,75,1.0,1.0,45,0.00,,,0.00,Wunderground v.1.15,2013-05-01 10:34:00,
2013-05-01 06:35:00,49.8,29.3,30.37,ENE,78,0.0,2.0,45,0.00,,,0.00,Wunderground v.1.15,2013-05-01 10:35:00,
2013-05-01 06:36:00,49.9,29.4,30.37,ENE,78,0.0,2.0,45,0.00,,,0.00,Wunderground v.1.15,2013-05-01 10:36:00,
2013-05-01 06:37:00,49.9,29.4,30.37,East,80,0.0,2.0,45,0.00,,,0.00,Wunderground v.1.15,2013-05-01 10:37:00,
2013-05-01 06:39:00,49.9,29.4,30.37,East,79,0.0,2.0,45,0.00,,,0.00,Wunderground v.1.15,2013-05-01 10:39:00,
2013-05-01 06:40:00,49.9,29.4,30.37,East,82,0.0,0.0,45,0.00,,,0.00,Wunderground v.1.15,2013-05-01 10:40:00,
2013-05-01 06:41:00,49.9,29.4,30.37,East,82,0.0,2.0,45,0.00,,,0.00,Wunderground v.1.15,2013-05-01 10:41:00,
2013-05-01 06:42:00,49.9,29.4,30.37,East,82,0.0,2.0,45,0.00,,,0.00,Wunderground v.1.15,2013-05-01 10:42:00,
2013-05-01 06:44:00,50.0,29.5,30.37,East,82,0.0,2.0,45,0.00,,,0.00,Wunderground v.1.15,2013-05-01 10:44:00,
2013-05-01 06:46:00,50.0,30.0,30.37,East,82,0.0,2.0,46,0.00,,,0.00,Wunderground v.1.15,2013-05-01 10:46:00,
2013-05-01 06:48:00,50.0,29.5,30.37,East,82,0.0,2.0,45,0.00,,,0.00,Wunderground v.1.15,2013-05-01 10:48:00,
2013-05-01 06:49:00,50.0,30.0,30.37,East,84,0.0,2.0,46,0.00,,,0.00,Wunderground v.1.15,2013-05-01 10:49:00,
2013-05-01 06:50:00,50.0,30.0,30.37,East,84,0.0,2.0,46,0.00,,,0.00,Wunderground v.1.15,2013-05-01 10:50:00,
2013-05-01 06:51:00,50.0,29.5,30.37,East,84,0.0,1.0,45,0.00,,,0.00,Wunderground v.1.15,2013-05-01 10:51:00,
2013-05-01 06:52:00,50.0,29.5,30.37,East,82,0.0,1.0,45,0.00,,,0.00,Wunderground v.1.15,2013-05-01 10:52:00,
2013-05-01 06:53:00,50.1,29.6,30.37,ENE,75,0.0,1.0,45,0.00,,,0.00,Wunderground v.1.15,2013-05-01 10:53:00,
2013-05-01 06:54:00,50.2,29.7,30.37,ENE,74,0.0,1.0,45,0.00,,,0.00,Wunderground v.1.15,2013-05-01 10:54:00,
2013-05-01 06:55:00,50.2,29.7,30.37,ENE,74,0.0,1.0,45,0.00,,,0.00,Wunderground v.1.15,2013-05-01 10:55:00,
2013-05-01 06:56:00,50.4,29.8,30.37,ENE,76,0.0,1.0,45,0.00,,,0.00,Wunderground v.1.15,2013-05-01 10:56:00,
2013-05-01 06:57:00,50.4,29.8,30.37,ENE,78,0.0,1.0,45,0.00,,,0.00,Wunderground v.1.15,2013-05-01 10:57:00,
2013-05-01 06:58:00,50.6,30.0,30.37,ENE,73,0.0,1.0,45,0.00,,,0.00,Wunderground v.1.15,2013-05-01 10:58:00,
2013-05-01 06:59:00,50.6,30.0,30.37,ENE,76,0.0,2.0,45,0.00,,,0.00,Wunderground v.1.15,2013-05-01 10:59:00,
2013-05-01 07:00:00,50.6,30.0,30.37,ENE,74,1.0,2.0,45,0.00,,,0.00,Wunderground v.1.15,2013-05-01 11:00:00,
2013-05-01 07:02:00,50.8,30.2,30.37,ENE,77,1.0,3.0,45,0.00,,,0.00,Wunderground v.1.15,2013-05-01 11:02:00,
2013-05-01 07:05:00,51.0,30.4,30.37,ENE,74,1.0,4.0,45,0.00,,,0.00,Wunderground v.1.15,2013-05-01 11:05:00,
2013-05-01 07:07:00,51.1,30.5,30.37,East,82,2.0,4.0,45,0.00,,,0.00,Wunderground v.1.15,2013-05-01 11:07:00,
2013-05-01 07:08:00,51.1,30.5,30.37,ENE,69,1.0,4.0,45,0.00,,,0.00,Wunderground v.1.15,2013-05-01 11:08:00,
2013-05-01 07:10:00,51.0,30.4,30.37,East,89,2.0,4.0,45,0.00,,,0.00,Wunderground v.1.15,2013-05-01 11:10:00,
2013-05-01 07:11:00,51.0,30.4,30.37,ENE,65,2.0,4.0,45,0.00,,,0.00,Wunderground v.1.15,2013-05-01 11:11:00,
2013-05-01 07:12:00,51.0,30.9,30.37,East,86,0.0,4.0,46,0.00,,,0.00,Wunderground v.1.15,2013-05-01 11:12:00,
2013-05-01 07:13:00,50.9,30.3,30.37,East,81,2.0,4.0,45,0.00,,,0.00,Wunderground v.1.15,2013-05-01 11:13:00,
2013-05-01 07:15:00,50.8,30.2,30.37,ENE,71,0.0,4.0,45,0.00,,,0.00,Wunderground v.1.15,2013-05-01 11:15:00,
2013-05-01 07:16:00,50.8,30.2,30.37,ENE,72,0.0,4.0,45,0.00,,,0.00,Wunderground v.1.15,2013-05-01 11:16:00,
2013-05-01 07:17:00,50.8,30.2,30.38,ENE,63,0.0,5.0,45,0.00,,,0.00,Wunderground v.1.15,2013-05-01 11:17:00,
2013-05-01 07:18:00,50.8,29.6,30.38,ENE,60,2.0,5.0,44,0.00,,,0.00,Wunderground v.1.15,2013-05-01 11:18:00,
2013-05-01 07:21:00,50.7,29.6,30.38,ENE,66,0.0,4.0,44,0.00,,,0.00,Wunderground v.1.15,2013-05-01 11:21:00,
2013-05-01 07:22:00,50.7,29.6,30.38,ENE,71,0.0,4.0,44,0.00,,,0.00,Wunderground v.1.15,2013-05-01 11:22:00,
2013-05-01 07:23:00,50.7,29.6,30.38,ENE,67,1.0,4.0,44,0.00,,,0.00,Wunderground v.1.15,2013-05-01 11:23:00,
2013-05-01 07:26:00,50.6,29.5,30.38,ENE,67,2.0,4.0,44,0.00,,,0.00,Wunderground v.1.15,2013-05-01 11:26:00,
2013-05-01 07:27:00,50.6,28.9,30.38,East,80,4.0,4.0,43,0.00,,,0.00,Wunderground v.1.15,2013-05-01 11:27:00,
2013-05-01 07:28:00,50.7,29.0,30.38,ENE,71,2.0,5.0,43,0.00,,,0.00,Wunderground v.1.15,2013-05-01 11:28:00,
2013-05-01 07:31:00,50.9,29.2,30.38,ENE,69,3.0,5.0,43,0.00,,,0.00,Wunderground v.1.15,2013-05-01 11:31:00,
2013-05-01 07:32:00,51.0,29.3,30.38,East,83,3.0,6.0,43,0.00,,,0.00,Wunderground v.1.15,2013-05-01 11:32:00,
2013-05-01 07:33:00,51.1,29.4,30.38,ENE,76,2.0,6.0,43,0.00,,,0.00,Wunderground v.1.15,2013-05-01 11:33:00,
2013-05-01 07:34:00,51.2,29.4,30.38,ENE,75,1.0,6.0,43,0.00,,,0.00,Wunderground v.1.15,2013-05-01 11:34:00,
2013-05-01 07:36:00,51.4,29.6,30.38,ENE,78,4.0,6.0,43,0.00,,,0.00,Wunderground v.1.15,2013-05-01 11:36:00,
2013-05-01 07:37:00,51.4,29.6,30.38,East,92,0.0,6.0,43,0.00,,,0.00,Wunderground v.1.15,2013-05-01 11:37:00,
2013-05-01 07:38:00,51.5,29.1,30.38,ENE,73,3.0,6.0,42,0.00,,,0.00,Wunderground v.1.15,2013-05-01 11:38:00,
2013-05-01 07:39:00,51.5,29.1,30.38,East,97,2.0,6.0,42,0.00,,,0.00,Wunderground v.1.15,2013-05-01 11:39:00,
2013-05-01 07:42:00,51.8,30.0,30.38,East,80,1.0,3.0,43,0.00,,,0.00,Wunderground v.1.15,2013-05-01 11:42:00,
2013-05-01 07:43:00,52.0,29.6,30.38,NE,52,0.0,3.0,42,0.00,,,0.00,Wunderground v.1.15,2013-05-01 11:43:00,
2013-05-01 07:44:00,52.0,29.6,30.38,NE,52,0.0,3.0,42,0.00,,,0.00,Wunderground v.1.15,2013-05-01 11:44:00,
2013-05-01 07:47:00,52.4,30.5,30.38,NNE,14,0.0,3.0,43,0.00,,,0.00,Wunderground v.1.15,2013-05-01 11:47:00,
2013-05-01 07:48:00,52.4,30.5,30.39,NNE,14,0.0,3.0,43,0.00,,,0.00,Wunderground v.1.15,2013-05-01 11:48:00,
2013-05-01 07:49:00,52.4,30.5,30.39,NNE,14,0.0,3.0,43,0.00,,,0.00,Wunderground v.1.15,2013-05-01 11:49:00,
2013-05-01 07:52:00,52.3,30.4,30.38,NNE,14,0.0,0.0,43,0.00,,,0.00,Wunderground v.1.15,2013-05-01 11:52:00,
2013-05-01 07:53:00,52.3,30.4,30.38,NNE,14,0.0,0.0,43,0.00,,,0.00,Wunderground v.1.15,2013-05-01 11:53:00,
2013-05-01 07:54:00,52.3,30.4,30.39,NNE,14,0.0,0.0,43,0.00,,,0.00,Wunderground v.1.15,2013-05-01 11:54:00,
2013-05-01 07:55:00,52.2,29.2,30.39,NNE,17,0.0,0.0,41,0.00,,,0.00,Wunderground v.1.15,2013-05-01 11:55:00,
2013-05-01 07:58:00,52.2,29.2,30.39,NNE,17,0.0,0.0,41,0.00,,,0.00,Wunderground v.1.15,2013-05-01 11:58:00,
2013-05-01 07:59:00,52.2,29.2,30.39,NNE,17,0.0,0.0,41,0.00,,,0.00,Wunderground v.1.15,2013-05-01 11:59:00,
2013-05-01 08:01:00,52.1,29.1,30.39,NNE,17,0.0,0.0,41,0.00,,,0.00,Wunderground v.1.15,2013-05-01 12:01:00,
2013-05-01 08:03:00,52.1,29.1,30.39,NNE,17,0.0,0.0,41,0.00,,,0.00,Wunderground v.1.15,2013-05-01 12:03:00,
2013-05-01 08:04:00,52.1,29.1,30.39,NNE,17,0.0,1.0,41,0.00,,,0.00,Wunderground v.1.15,2013-05-01 12:04:00,
2013-05-01 08:06:00,52.2,29.2,30.39,NNE,17,0.0,1.0,41,0.00,,,0.00,Wunderground v.1.15,2013-05-01 12:06:00,
2013-05-01 08:09:00,52.4,29.4,30.39,NNE,17,0.0,1.0,41,0.00,,,0.00,Wunderground v.1.15,2013-05-01 12:09:00,
2013-05-01 08:11:00,52.6,29.5,30.39,NNE,17,0.0,1.0,41,0.00,,,0.00,Wunderground v.1.15,2013-05-01 12:11:00,
2013-05-01 08:14:00,52.8,29.7,30.39,West,263,2.0,2.0,41,0.00,,,0.00,Wunderground v.1.15,2013-05-01 12:14:00,
2013-05-01 08:17:00,53.2,30.1,30.39,NNW,346,0.0,2.0,41,0.00,,,0.00,Wunderground v.1.15,2013-05-01 12:17:00,
2013-05-01 08:19:00,53.7,30.5,30.39,WSW,258,3.0,3.0,41,0.00,,,0.00,Wunderground v.1.15,2013-05-01 12:19:00,
2013-05-01 08:20:00,53.7,29.9,30.40,WSW,257,1.0,1.0,40,0.00,,,0.00,Wunderground v.1.15,2013-05-01 12:20:00,
2013-05-01 08:22:00,53.7,31.1,30.40,WSW,257,0.0,1.0,42,0.00,,,0.00,Wunderground v.1.15,2013-05-01 12:22:00,
2013-05-01 08:24:00,53.7,30.5,30.40,NW,319,0.0,2.0,41,0.00,,,0.00,Wunderground v.1.15,2013-05-01 12:24:00,
2013-05-01 08:25:00,53.7,30.5,30.40,NW,319,0.0,2.0,41,0.00,,,0.00,Wunderground v.1.15,2013-05-01 12:25:00,
2013-05-01 08:27:00,53.7,31.1,30.40,NW,319,1.0,2.0,42,0.00,,,0.00,Wunderground v.1.15,2013-05-01 12:27:00,
2013-05-01 08:30:00,53.6,30.4,30.40,WNW,293,0.0,2.0,41,0.00,,,0.00,Wunderground v.1.15,2013-05-01 12:30:00,
2013-05-01 08:32:00,53.6,31.0,30.39,WNW,301,0.0,3.0,42,0.00,,,0.00,Wunderground v.1.15,2013-05-01 12:32:00,
2013-05-01 08:35:00,54.0,31.4,30.39,West,265,0.0,3.0,42,0.00,,,0.00,Wunderground v.1.15,2013-05-01 12:35:00,
2013-05-01 08:36:00,54.1,31.5,30.40,West,263,0.0,3.0,42,0.00,,,0.00,Wunderground v.1.15,2013-05-01 12:36:00,
2013-05-01 08:37:00,54.2,31.0,30.40,SSE,149,2.0,3.0,41,0.00,,,0.00,Wunderground v.1.15,2013-05-01 12:37:00,
2013-05-01 08:40:00,55.0,31.1,30.40,SSE,148,0.0,1.0,40,0.00,,,0.00,Wunderground v.1.15,2013-05-01 12:40:00,
2013-05-01 08:41:00,55.0,31.1,30.40,SE,146,0.0,1.0,40,0.00,,,0.00,Wunderground v.1.15,2013-05-01 12:41:00,
2013-05-01 08:42:00,55.5,30.3,30.40,East,92,1.0,4.0,38,0.00,,,0.00,Wunderground v.1.15,2013-05-01 12:42:00,
2013-05-01 08:46:00,56.0,31.4,30.40,South,186,0.0,4.0,39,0.00,,,0.00,Wunderground v.1.15,2013-05-01 12:46:00,
2013-05-01 08:48:00,56.3,31.0,30.40,NNE,32,0.0,4.0,38,0.00,,,0.00,Wunderground v.1.15,2013-05-01 12:48:00,
2013-05-01 08:51:00,56.9,31.5,30.40,East,93,1.0,2.0,38,0.00,,,0.00,Wunderground v.1.15,2013-05-01 12:51:00,
2013-05-01 08:52:00,57.1,31.0,30.40,ENE,71,5.0,5.0,37,0.00,,,0.00,Wunderground v.1.15,2013-05-01 12:52:00,
2013-05-01 08:53:00,57.2,30.5,30.40,NE,46,0.0,5.0,36,0.00,,,0.00,Wunderground v.1.15,2013-05-01 12:53:00,
2013-05-01 08:56:00,57.6,31.5,30.40,East,79,0.0,5.0,37,0.00,,,0.00,Wunderground v.1.15,2013-05-01 12:56:00,
2013-05-01 08:57:00,57.7,30.9,30.40,ENE,76,0.0,5.0,36,0.00,,,0.00,Wunderground v.1.15,2013-05-01 12:57:00,
2013-05-01 08:58:00,57.9,31.8,30.40,ENE,60,0.0,5.0,37,0.00,,,0.00,Wunderground v.1.15,2013-05-01 12:58:00,
2013-05-01 09:01:00,58.4,30.8,30.40,NW,307,0.0,1.0,35,0.00,,,0.00,Wunderground v.1.15,2013-05-01 13:01:00,
2013-05-01 09:02:00,58.6,31.7,30.40,NW,307,2.0,2.0,36,0.00,,,0.00,Wunderground v.1.15,2013-05-01 13:02:00,
2013-05-01 09:03:00,58.6,32.4,30.40,NW,306,1.0,2.0,37,0.00,,,0.00,Wunderground v.1.15,2013-05-01 13:03:00,
2013-05-01 09:04:00,58.6,32.4,30.40,NW,309,0.0,2.0,37,0.00,,,0.00,Wunderground v.1.15,2013-05-01 13:04:00,
2013-05-01 09:06:00,58.4,32.9,30.40,NW,304,0.0,2.0,38,0.00,,,0.00,Wunderground v.1.15,2013-05-01 13:06:00,
2013-05-01 09:07:00,58.3,32.8,30.40,NW,308,0.0,2.0,38,0.00,,,0.00,Wunderground v.1.15,2013-05-01 13:07:00,
2013-05-01 09:08:00,58.3,31.4,30.40,NW,308,0.0,2.0,36,0.00,,,0.00,Wunderground v.1.15,2013-05-01 13:08:00,
2013-05-01 09:09:00,58.3,32.8,30.40,NW,308,0.0,2.0,38,0.00,,,0.00,Wunderground v.1.15,2013-05-01 13:09:00,
2013-05-01 09:12:00,58.2,31.3,30.40,WSW,257,0.0,1.0,36,0.00,,,0.00,Wunderground v.1.15,2013-05-01 13:12:00,
2013-05-01 09:13:00,58.2,30.7,30.40,NW,306,0.0,1.0,35,0.00,,,0.00,Wunderground v.1.15,2013-05-01 13:13:00,
2013-05-01 09:14:00,58.3,32.8,30.40,North,351,2.0,3.0,38,0.00,,,0.00,Wunderground v.1.15,2013-05-01 13:14:00,
2013-05-01 09:17:00,58.5,33.6,30.41,West,266,0.0,3.0,39,0.00,,,0.00,Wunderground v.1.15,2013-05-01 13:17:00,
2013-05-01 09:18:00,58.6,33.7,30.40,West,266,0.0,3.0,39,0.00,,,0.00,Wunderground v.1.15,2013-05-01 13:18:00,
2013-05-01 09:19:00,58.6,31.7,30.40,West,266,0.0,3.0,36,0.00,,,0.00,Wunderground v.1.15,2013-05-01 13:19:00,
2013-05-01 09:22:00,58.6,33.0,30.40,SW,231,2.0,3.0,38,0.00,,,0.00,Wunderground v.1.15,2013-05-01 13:22:00,
2013-05-01 09:23:00,58.5,32.3,30.40,SSW,206,2.0,3.0,37,0.00,,,0.00,Wunderground v.1.15,2013-05-01 13:23:00,
2013-05-01 09:24:00,58.5,33.0,30.40,SSW,209,3.0,3.0,38,0.00,,,0.00,Wunderground v.1.15,2013-05-01 13:24:00,
2013-05-01 09:25:00,58.3,32.1,30.40,SSW,198,0.0,4.0,37,0.00,,,0.00,Wunderground v.1.15,2013-05-01 13:25:00,
2013-05-01 09:27:00,58.2,30.7,30.40,WSW,238,0.0,4.0,35,0.00,,,0.00,Wunderground v.1.15,2013-05-01 13:27:00,
2013-05-01 09:28:00,58.2,30.7,30.40,WSW,238,0.0,4.0,35,0.00,,,0.00,Wunderground v.1.15,2013-05-01 13:28:00,
2013-05-01 09:29:00,58.3,32.1,30.40,WSW,238,0.0,4.0,37,0.00,,,0.00,Wunderground v.1.15,2013-05-01 13:29:00,
2013-05-01 09:31:00,58.6,34.3,30.40,SW,229,3.0,3.0,40,0.00,,,0.00,Wunderground v.1.15,2013-05-01 13:31:00,
2013-05-01 09:32:00,58.7,31.8,30.40,South,178,0.0,6.0,36,0.00,,,0.00,Wunderground v.1.15,2013-05-01 13:32:00,
2013-05-01 09:33:00,58.7,31.8,30.40,SE,130,2.0,6.0,36,0.00,,,0.00,Wunderground v.1.15,2013-05-01 13:33:00,
2013-05-01 09:34:00,58.8,30.5,30.40,South,177,1.0,6.0,34,0.00,,,0.00,Wunderground v.1.15,2013-05-01 13:34:00,
2013-05-01 09:36:00,59.0,29.9,30.40,SW,217,0.0,6.0,33,0.00,,,0.00,Wunderground v.1.15,2013-05-01 13:36:00,
2013-05-01 09:37:00,59.1,32.1,30.40,SW,217,1.0,6.0,36,0.00,,,0.00,Wunderground v.1.15,2013-05-01 13:37:00,
2013-05-01 09:39:00,59.3,33.0,30.41,West,259,2.0,6.0,37,0.00,,,0.00,Wunderground v.1.15,2013-05-01 13:39:00,
2013-05-01 09:41:00,59.7,34.7,30.41,West,261,0.0,2.0,39,0.00,,,0.00,Wunderground v.1.15,2013-05-01 13:41:00,
2013-05-01 09:43:00,60.0,34.3,30.41,NNE,28,3.0,5.0,38,0.00,,,0.00,Wunderground v.1.15,2013-05-01 13:43:00,
2013-05-01 09:44:00,60.1,32.3,30.41,SSE,165,4.0,5.0,35,0.00,,,0.00,Wunderground v.1.15,2013-05-01 13:44:00,
2013-05-01 09:47:00,60.1,30.1,30.41,SW,215,2.0,5.0,32,0.00,,,0.00,Wunderground v.1.15,2013-05-01 13:47:00,
2013-05-01 09:48:00,60.0,30.0,30.41,SSW,211,0.0,5.0,32,0.00,,,0.00,Wunderground v.1.15,2013-05-01 13:48:00,
2013-05-01 09:49:00,60.0,30.8,30.41,SSW,202,1.0,5.0,33,0.00,,,0.00,Wunderground v.1.15,2013-05-01 13:49:00,
2013-05-01 09:52:00,60.2,32.4,30.41,SSW,202,0.0,4.0,35,0.00,,,0.00,Wunderground v.1.15,2013-05-01 13:52:00,
2013-05-01 09:53:00,60.1,33.0,30.41,WNW,285,1.0,4.0,36,0.00,,,0.00,Wunderground v.1.15,2013-05-01 13:53:00,
2013-05-01 09:54:00,60.1,33.0,30.41,SE,144,0.0,4.0,36,0.00,,,0.00,Wunderground v.1.15,2013-05-01 13:54:00,
2013-05-01 09:57:00,60.4,33.3,30.41,SE,127,1.0,4.0,36,0.00,,,0.00,Wunderground v.1.15,2013-05-01 13:57:00,
2013-05-01 09:59:00,60.6,32.8,30.41,North,351,3.0,4.0,35,0.00,,,0.00,Wunderground v.1.15,2013-05-01 13:59:00,
2013-05-01 10:00:00,60.9,33.7,30.41,NNW,333,1.0,2.0,36,0.00,,,0.00,Wunderground v.1.15,2013-05-01 14:00:00,
2013-05-01 10:02:00,61.2,31.1,30.41,ENE,61,1.0,4.0,32,0.00,,,0.00,Wunderground v.1.15,2013-05-01 14:02:00,
2013-05-01 10:04:00,61.4,32.0,30.41,SSE,167,4.0,5.0,33,0.00,,,0.00,Wunderground v.1.15,2013-05-01 14:04:00,
2013-05-01 10:05:00,61.5,32.1,30.41,SSW,213,0.0,5.0,33,0.00,,,0.00,Wunderground v.1.15,2013-05-01 14:05:00,
2013-05-01 10:06:00,61.6,31.4,30.41,NE,34,1.0,5.0,32,0.00,,,0.00,Wunderground v.1.15,2013-05-01 14:06:00,
2013-05-01 10:08:00,61.9,31.7,30.40,North,355,4.0,5.0,32,0.00,,,0.00,Wunderground v.1.15,2013-05-01 14:08:00,
2013-05-01 10:09:00,62.1,31.1,30.40,WNW,293,0.0,5.0,31,0.00,,,0.00,Wunderground v.1.15,2013-05-01 14:09:00,
2013-05-01 10:10:00,62.1,31.1,30.40,WNW,293,0.0,2.0,31,0.00,,,0.00,Wunderground v.1.15,2013-05-01 14:10:00,
2013-05-01 10:12:00,62.2,32.0,30.40,NW,315,0.0,2.0,32,0.00,,,0.00,Wunderground v.1.15,2013-05-01 14:12:00,
2013-05-01 10:13:00,62.3,35.0,30.41,North,351,7.0,7.0,36,0.00,,,0.00,Wunderground v.1.15,2013-05-01 14:13:00,
2013-05-01 10:14:00,62.6,34.5,30.41,North,5,4.0,7.0,35,0.00,,,0.00,Wunderground v.1.15,2013-05-01 14:14:00,
2013-05-01 10:15:00,62.6,34.5,30.41,North,355,3.0,7.0,35,0.00,,,0.00,Wunderground v.1.15,2013-05-01 14:15:00,
2013-05-01 10:17:00,62.7,33.2,30.40,SE,125,2.0,7.0,33,0.00,,,0.00,Wunderground v.1.15,2013-05-01 14:17:00,
2013-05-01 10:19:00,62.7,32.4,30.41,ESE,111,2.0,7.0,32,0.00,,,0.00,Wunderground v.1.15,2013-05-01 14:19:00,
2013-05-01 10:20:00,62.6,32.3,30.41,NE,50,0.0,2.0,32,0.00,,,0.00,Wunderground v.1.15,2013-05-01 14:20:00,
2013-05-01 10:21:00,62.7,33.2,30.41,North,5,1.0,2.0,33,0.00,,,0.00,Wunderground v.1.15,2013-05-01 14:21:00,
2013-05-01 10:22:00,62.7,32.4,30.40,East,93,0.0,2.0,32,0.00,,,0.00,Wunderground v.1.15,2013-05-01 14:22:00,
2013-05-01 10:24:00,62.7,31.6,30.41,WSW,240,2.0,5.0,31,0.00,,,0.00,Wunderground v.1.15,2013-05-01 14:24:00,
2013-05-01 10:25:00,62.7,33.9,30.41,South,186,4.0,5.0,34,0.00,,,0.00,Wunderground v.1.15,2013-05-01 14:25:00,
2013-05-01 10:26:00,62.6,33.1,30.41,SSW,209,0.0,5.0,33,0.00,,,0.00,Wunderground v.1.15,2013-05-01 14:26:00,
2013-05-01 10:27:00,62.6,33.1,30.41,NNW,348,4.0,5.0,33,0.00,,,0.00,Wunderground v.1.15,2013-05-01 14:27:00,
2013-05-01 10:29:00,62.8,34.0,30.40,NNW,336,0.0,5.0,34,0.00,,,0.00,Wunderground v.1.15,2013-05-01 14:29:00,
2013-05-01 10:30:00,63.0,34.2,30.41,SW,226,1.0,3.0,34,0.00,,,0.00,Wunderground v.1.15,2013-05-01 14:30:00,
2013-05-01 10:31:00,63.2,32.8,30.40,NNW,340,1.0,3.0,32,0.00,,,0.00,Wunderground v.1.15,2013-05-01 14:31:00,
2013-05-01 10:32:00,63.3,32.9,30.40,NW,325,3.0,3.0,32,0.00,,,0.00,Wunderground v.1.15,2013-05-01 14:32:00,
2013-05-01 10:35:00,63.5,32.3,30.40,WNW,299,2.0,6.0,31,0.00,,,0.00,Wunderground v.1.15,2013-05-01 14:35:00,
2013-05-01 10:36:00,63.6,33.9,30.40,North,351,3.0,6.0,33,0.00,,,0.00,Wunderground v.1.15,2013-05-01 14:36:00,
2013-05-01 10:37:00,63.7,33.3,30.40,NNW,337,2.0,6.0,32,0.00,,,0.00,Wunderground v.1.15,2013-05-01 14:37:00,
2013-05-01 10:40:00,63.4,33.0,30.40,NNE,16,5.0,8.0,32,0.00,,,0.00,Wunderground v.1.15,2013-05-01 14:40:00,
2013-05-01 10:41:00,63.4,32.2,30.40,NNE,23,3.0,8.0,31,0.00,,,0.00,Wunderground v.1.15,2013-05-01 14:41:00,
2013-05-01 10:42:00,63.4,33.0,30.40,South,181,1.0,8.0,32,0.00,,,0.00,Wunderground v.1.15,2013-05-01 14:42:00,
2013-05-01 10:43:00,63.4,33.0,30.40,SE,126,2.0,8.0,32,0.00,,,0.00,Wunderground v.1.15,2013-05-01 14:43:00,
2013-05-01 10:46:00,63.5,33.1,30.40,North,5,4.0,9.0,32,0.00,,,0.00,Wunderground v.1.15,2013-05-01 14:46:00,
2013-05-01 10:48:00,63.8,31.7,30.40,NE,40,7.0,9.0,30,0.00,,,0.00,Wunderground v.1.15,2013-05-01 14:48:00,
2013-05-01 10:51:00,63.7,31.7,30.40,SW,235,1.0,4.0,30,0.00,,,0.00,Wunderground v.1.15,2013-05-01 14:51:00,
2013-05-01 10:52:00,63.6,30.7,30.40,NNE,32,2.0,4.0,29,0.00,,,0.00,Wunderground v.1.15,2013-05-01 14:52:00,
2013-05-01 10:53:00,63.6,33.2,30.40,NNE,31,0.0,4.0,32,0.00,,,0.00,Wunderground v.1.15,2013-05-01 14:53:00,
2013-05-01 10:56:00,63.9,31.8,30.40,NW,321,5.0,8.0,30,0.00,,,0.00,Wunderground v.1.15,2013-05-01 14:56:00,
2013-05-01 10:57:00,63.9,31.8,30.40,North,9,0.0,8.0,30,0.00,,,0.00,Wunderground v.1.15,2013-05-01 14:57:00,
2013-05-01 10:58:00,64.0,31.9,30.40,NNE,13,0.0,8.0,30,0.00,,,0.00,Wunderground v.1.15,2013-05-01 14:58:00,
2013-05-01 11:01:00,64.5,30.6,30.40,NE,40,6.0,10.0,28,0.00,,,0.00,Wunderground v.1.15,2013-05-01 15:01:00,
2013-05-01 11:02:00,64.7,31.7,30.40,NE,50,0.0,10.0,29,0.00,,,0.00,Wunderground v.1.15,2013-05-01 15:02:00,
2013-05-01 11:04:00,64.9,31.9,30.40,NW,325,1.0,10.0,29,0.00,,,0.00,Wunderground v.1.15,2013-05-01 15:04:00,
2013-05-01 11:06:00,65.2,31.2,30.40,WSW,248,2.0,10.0,28,0.00,,,0.00,Wunderground v.1.15,2013-05-01 15:06:00,
2013-05-01 11:07:00,65.2,31.2,30.40,WSW,242,0.0,10.0,28,0.00,,,0.00,Wunderground v.1.15,2013-05-01 15:07:00,
2013-05-01 11:09:00,65.2,31.2,30.40,SSE,167,7.0,10.0,28,0.00,,,0.00,Wunderground v.1.15,2013-05-01 15:09:00,
2013-05-01 11:12:00,65.0,31.1,30.40,NE,56,4.0,10.0,28,0.00,,,0.00,Wunderground v.1.15,2013-05-01 15:12:00,
2013-05-01 11:14:00,64.9,32.7,30.39,North,350,1.0,10.0,30,0.00,,,0.00,Wunderground v.1.15,2013-05-01 15:14:00,
2013-05-01 11:17:00,65.3,31.3,30.39,ESE,103,2.0,10.0,28,0.00,,,0.00,Wunderground v.1.15,2013-05-01 15:17:00,
2013-05-01 11:19:00,65.2,30.3,30.39,ESE,119,6.0,10.0,27,0.00,,,0.00,Wunderground v.1.15,2013-05-01 15:19:00,
2013-05-01 11:20:00,65.2,30.3,30.39,East,98,4.0,10.0,27,0.00,,,0.00,Wunderground v.1.15,2013-05-01 15:20:00,
2013-05-01 11:23:00,65.2,32.1,30.39,NE,53,3.0,6.0,29,0.00,,,0.00,Wunderground v.1.15,2013-05-01 15:23:00,
2013-05-01 11:24:00,65.1,31.2,30.39,East,85,5.0,11.0,28,0.00,,,0.00,Wunderground v.1.15,2013-05-01 15:24:00,
2013-05-01 11:25:00,65.1,30.3,30.39,ENE,69,1.0,11.0,27,0.00,,,0.00,Wunderground v.1.15,2013-05-01 15:25:00,
2013-05-01 11:28:00,65.3,31.3,30.39,ESE,115,6.0,11.0,28,0.00,,,0.00,Wunderground v.1.15,2013-05-01 15:28:00,
2013-05-01 11:29:00,65.2,31.2,30.39,ENE,70,2.0,11.0,28,0.00,,,0.00,Wunderground v.1.15,2013-05-01 15:29:00,
2013-05-01 11:30:00,65.2,31.2,30.39,SSE,157,0.0,4.0,28,0.00,,,0.00,Wunderground v.1.15,2013-05-01 15:30:00,
2013-05-01 11:31:00,65.3,30.4,30.39,SSE,159,0.0,4.0,27,0.00,,,0.00,Wunderground v.1.15,2013-05-01 15:31:00,
2013-05-01 11:33:00,65.4,31.4,30.39,NNW,346,1.0,6.0,28,0.00,,,0.00,Wunderground v.1.15,2013-05-01 15:33:00,
2013-05-01 11:34:00,65.6,32.5,30.39,NNE,25,4.0,8.0,29,0.00,,,0.00,Wunderground v.1.15,2013-05-01 15:34:00,
2013-05-01 11:35:00,65.6,32.5,30.39,NW,321,5.0,8.0,29,0.00,,,0.00,Wunderground v.1.15,2013-05-01 15:35:00,
2013-05-01 11:36:00,65.8,34.3,30.39,WSW,244,1.0,8.0,31,0.00,,,0.00,Wunderground v.1.15,2013-05-01 15:36:00,
2013-05-01 11:38:00,65.9,31.8,30.39,SSW,208,3.0,8.0,28,0.00,,,0.00,Wunderground v.1.15,2013-05-01 15:38:00,
2013-05-01 11:40:00,65.9,31.8,30.39,North,9,0.0,8.0,28,0.00,,,0.00,Wunderground v.1.15,2013-05-01 15:40:00,
2013-05-01 11:41:00,65.9,32.7,30.39,SW,217,2.0,3.0,29,0.00,,,0.00,Wunderground v.1.15,2013-05-01 15:41:00,
2013-05-01 11:44:00,65.8,31.8,30.39,South,178,1.0,11.0,28,0.00,,,0.00,Wunderground v.1.15,2013-05-01 15:44:00,
2013-05-01 11:45:00,65.7,31.7,30.39,South,187,3.0,11.0,28,0.00,,,0.00,Wunderground v.1.15,2013-05-01 15:45:00,
2013-05-01 11:47:00,65.4,33.1,30.38,SSW,211,1.0,11.0,30,0.00,,,0.00,Wunderground v.1.15,2013-05-01 15:47:00,
2013-05-01 11:49:00,65.0,31.9,30.38,SSE,166,7.0,11.0,29,0.00,,,0.00,Wunderground v.1.15,2013-05-01 15:49:00,
2013-05-01 11:50:00,65.0,31.9,30.38,SSE,158,6.0,6.0,29,0.00,,,0.00,Wunderground v.1.15,2013-05-01 15:50:00,
2013-05-01 11:52:00,64.7,33.3,30.38,South,190,3.0,9.0,31,0.00,,,0.00,Wunderground v.1.15,2013-05-01 15:52:00,
2013-05-01 11:55:00,65.2,35.4,30.38,NNE,14,7.0,9.0,33,0.00,,,0.00,Wunderground v.1.15,2013-05-01 15:55:00,
2013-05-01 11:57:00,65.8,33.5,30.38,SE,133,1.0,10.0,30,0.00,,,0.00,Wunderground v.1.15,2013-05-01 15:57:00,
2013-05-01 11:58:00,65.9,32.7,30.38,SSE,148,1.0,10.0,29,0.00,,,0.00,Wunderground v.1.15,2013-05-01 15:58:00,
2013-05-01 12:00:00,66.0,31.0,30.38,East,90,6.0,6.0,27,0.00,,,0.00,Wunderground v.1.15,2013-05-01 16:00:00,
2013-05-01 12:01:00,65.9,30.9,30.38,ENE,61,8.0,10.0,27,0.00,,,0.00,Wunderground v.1.15,2013-05-01 16:01:00,
2013-05-01 12:02:00,65.8,34.3,30.38,East,94,5.0,10.0,31,0.00,,,0.00,Wunderground v.1.15,2013-05-01 16:02:00,
2013-05-01 12:04:00,66.0,32.8,30.38,SSW,207,2.0,10.0,29,0.00,,,0.00,Wunderground v.1.15,2013-05-01 16:04:00,
2013-05-01 12:05:00,66.1,32.0,30.38,ESE,111,0.0,10.0,28,0.00,,,0.00,Wunderground v.1.15,2013-05-01 16:05:00,
2013-05-01 12:06:00,66.3,30.4,30.38,ESE,107,2.0,10.0,26,0.00,,,0.00,Wunderground v.1.15,2013-05-01 16:06:00,
2013-05-01 12:08:00,66.4,30.4,30.38,South,176,2.0,10.0,26,0.00,,,0.00,Wunderground v.1.15,2013-05-01 16:08:00,
2013-05-01 12:09:00,66.4,28.5,30.38,WSW,252,2.0,10.0,24,0.00,,,0.00,Wunderground v.1.15,2013-05-01 16:09:00,
2013-05-01 12:10:00,66.2,29.3,30.38,ENE,67,2.0,6.0,25,0.00,,,0.00,Wunderground v.1.15,2013-05-01 16:10:00,
2013-05-01 12:11:00,66.1,28.2,30.38,ESE,115,1.0,10.0,24,0.00,,,0.00,Wunderground v.1.15,2013-05-01 16:11:00,
2013-05-01 12:13:00,66.1,28.2,30.38,South,177,1.0,10.0,24,0.00,,,0.00,Wunderground v.1.15,2013-05-01 16:13:00,
2013-05-01 12:14:00,66.2,29.3,30.38,East,84,1.0,10.0,25,0.00,,,0.00,Wunderground v.1.15,2013-05-01 16:14:00,
2013-05-01 12:15:00,66.3,29.4,30.38,South,189,4.0,10.0,25,0.00,,,0.00,Wunderground v.1.15,2013-05-01 16:15:00,
2013-05-01 12:16:00,66.3,29.4,30.38,NNE,14,3.0,10.0,25,0.00,,,0.00,Wunderground v.1.15,2013-05-01 16:16:00,
2013-05-01 12:19:00,66.5,30.5,30.38,NNE,29,0.0,10.0,26,0.00,,,0.00,Wunderground v.1.15,2013-05-01 16:19:00,
2013-05-01 12:20:00,66.7,30.7,30.38,East,86,2.0,5.0,26,0.00,,,0.00,Wunderground v.1.15,2013-05-01 16:20:00,
2013-05-01 12:21:00,66.8,29.8,30.38,East,96,6.0,6.0,25,0.00,,,0.00,Wunderground v.1.15,2013-05-01 16:21:00,
2013-05-01 12:22:00,66.9,27.9,30.38,East,81,3.0,8.0,23,0.00,,,0.00,Wunderground v.1.15,2013-05-01 16:22:00,
2013-05-01 12:24:00,66.8,29.8,30.38,South,177,7.0,8.0,25,0.00,,,0.00,Wunderground v.1.15,2013-05-01 16:24:00,
2013-05-01 12:25:00,66.7,29.7,30.38,SSW,202,3.0,8.0,25,0.00,,,0.00,Wunderground v.1.15,2013-05-01 16:25:00,
2013-05-01 12:26:00,66.6,30.6,30.38,North,9,7.0,9.0,26,0.00,,,0.00,Wunderground v.1.15,2013-05-01 16:26:00,
2013-05-01 12:28:00,66.6,31.5,30.38,NNW,347,3.0,9.0,27,0.00,,,0.00,Wunderground v.1.15,2013-05-01 16:28:00,
2013-05-01 12:30:00,67.0,30.0,30.38,NNE,12,5.0,8.0,25,0.00,,,0.00,Wunderground v.1.15,2013-05-01 16:30:00,
2013-05-01 12:31:00,67.0,29.0,30.38,NW,321,2.0,8.0,24,0.00,,,0.00,Wunderground v.1.15,2013-05-01 16:31:00,
2013-05-01 12:33:00,67.2,29.2,30.38,NNE,15,1.0,8.0,24,0.00,,,0.00,Wunderground v.1.15,2013-05-01 16:33:00,
2013-05-01 12:35:00,67.7,29.6,30.38,SW,219,2.0,8.0,24,0.00,,,0.00,Wunderground v.1.15,2013-05-01 16:35:00,
2013-05-01 12:36:00,67.7,29.6,30.38,SSW,197,0.0,8.0,24,0.00,,,0.00,Wunderground v.1.15,2013-05-01 16:36:00,
2013-05-01 12:38:00,67.9,30.8,30.38,SSW,198,1.0,8.0,25,0.00,,,0.00,Wunderground v.1.15,2013-05-01 16:38:00,
2013-05-01 12:41:00,68.0,33.7,30.38,South,175,0.0,3.0,28,0.00,,,0.00,Wunderground v.1.15,2013-05-01 16:41:00,
2013-05-01 12:42:00,68.2,32.0,30.38,SE,130,0.0,3.0,26,0.00,,,0.00,Wunderground v.1.15,2013-05-01 16:42:00,
2013-05-01 12:43:00,68.4,32.1,30.38,SSE,168,0.0,4.0,26,0.00,,,0.00,Wunderground v.1.15,2013-05-01 16:43:00,
2013-05-01 12:46:00,68.6,29.3,30.37,East,88,8.0,13.0,23,0.00,,,0.00,Wunderground v.1.15,2013-05-01 16:46:00,
2013-05-01 12:47:00,68.5,31.3,30.38,North,9,4.0,13.0,25,0.00,,,0.00,Wunderground v.1.15,2013-05-01 16:47:00,
2013-05-01 12:48:00,68.5,31.3,30.37,NE,36,5.0,13.0,25,0.00,,,0.00,Wunderground v.1.15,2013-05-01 16:48:00,
2013-05-01 12:51:00,68.1,29.9,30.38,SW,234,2.0,8.0,24,0.00,,,0.00,Wunderground v.1.15,2013-05-01 16:51:00,
2013-05-01 12:53:00,68.0,31.8,30.38,East,94,4.0,8.0,26,0.00,,,0.00,Wunderground v.1.15,2013-05-01 16:53:00,
2013-05-01 12:54:00,67.9,30.8,30.38,NE,48,1.0,8.0,25,0.00,,,0.00,Wunderground v.1.15,2013-05-01 16:54:00,
2013-05-01 12:56:00,67.9,28.7,30.38,SSE,167,2.0,8.0,23,0.00,,,0.00,Wunderground v.1.15,2013-05-01 16:56:00,
2013-05-01 12:57:00,68.0,28.8,30.38,ESE,109,1.0,8.0,23,0.00,,,0.00,Wunderground v.1.15,2013-05-01 16:57:00,
2013-05-01 12:58:00,68.0,29.8,30.38,NE,34,1.0,8.0,24,0.00,,,0.00,Wunderground v.1.15,2013-05-01 16:58:00,
2013-05-01 12:59:00,68.0,29.8,30.38,ESE,122,4.0,8.0,24,0.00,,,0.00,Wunderground v.1.15,2013-05-01 16:59:00,
2013-05-01 13:01:00,67.9,26.5,30.38,SSE,165,4.0,8.0,21,0.00,,,0.00,Wunderground v.1.15,2013-05-01 17:01:00,
2013-05-01 13:02:00,67.7,27.5,30.38,South,178,4.0,8.0,22,0.00,,,0.00,Wunderground v.1.15,2013-05-01 17:02:00,
2013-05-01 13:03:00,67.6,26.2,30.37,SSW,192,4.0,8.0,21,0.00,,,0.00,Wunderground v.1.15,2013-05-01 17:03:00,
2013-05-01 13:04:00,67.5,26.2,30.38,SE,132,6.0,8.0,21,0.00,,,0.00,Wunderground v.1.15,2013-05-01 17:04:00,
2013-05-01 13:07:00,67.5,29.4,30.37,South,179,0.0,8.0,24,0.00,,,0.00,Wunderground v.1.15,2013-05-01 17:07:00,
2013-05-01 13:08:00,67.6,28.5,30.37,South,180,0.0,8.0,23,0.00,,,0.00,Wunderground v.1.15,2013-05-01 17:08:00,
2013-05-01 13:09:00,67.8,28.6,30.38,East,94,4.0,8.0,23,0.00,,,0.00,Wunderground v.1.15,2013-05-01 17:09:00,
2013-05-01 13:10:00,68.1,27.8,30.37,SSW,207,6.0,9.0,22,0.00,,,0.00,Wunderground v.1.15,2013-05-01 17:10:00,
2013-05-01 13:12:00,67.9,25.3,30.37,SW,217,5.0,9.0,20,0.00,,,0.00,Wunderground v.1.15,2013-05-01 17:12:00,
2013-05-01 13:13:00,67.8,26.4,30.37,SW,229,3.0,9.0,21,0.00,,,0.00,Wunderground v.1.15,2013-05-01 17:13:00,
2013-05-01 13:14:00,67.7,28.5,30.37,South,177,4.0,9.0,23,0.00,,,0.00,Wunderground v.1.15,2013-05-01 17:14:00,
2013-05-01 13:15:00,67.7,28.5,30.37,SE,137,6.0,9.0,23,0.00,,,0.00,Wunderground v.1.15,2013-05-01 17:15:00,
2013-05-01 13:18:00,67.6,25.1,30.37,ENE,60,2.0,9.0,20,0.00,,,0.00,Wunderground v.1.15,2013-05-01 17:18:00,
2013-05-01 13:19:00,67.6,27.4,30.37,East,90,4.0,9.0,22,0.00,,,0.00,Wunderground v.1.15,2013-05-01 17:19:00,
2013-05-01 13:20:00,67.7,27.5,30.37,NE,45,4.0,6.0,22,0.00,,,0.00,Wunderground v.1.15,2013-05-01 17:20:00,
2013-05-01 13:21:00,67.7,27.5,30.37,NNW,339,0.0,6.0,22,0.00,,,0.00,Wunderground v.1.15,2013-05-01 17:21:00,
2013-05-01 13:23:00,68.0,26.6,30.37,SSW,210,0.0,6.0,21,0.00,,,0.00,Wunderground v.1.15,2013-05-01 17:23:00,
2013-05-01 13:24:00,68.1,28.9,30.37,WNW,292,1.0,6.0,23,0.00,,,0.00,Wunderground v.1.15,2013-05-01 17:24:00,
2013-05-01 13:25:00,68.3,26.8,30.37,ENE,60,4.0,7.0,21,0.00,,,0.00,Wunderground v.1.15,2013-05-01 17:25:00,
2013-05-01 13:26:00,68.4,25.7,30.37,East,98,2.0,7.0,20,0.00,,,0.00,Wunderground v.1.15,2013-05-01 17:26:00,
2013-05-01 13:28:00,68.4,24.5,30.37,East,86,5.0,8.0,19,0.00,,,0.00,Wunderground v.1.15,2013-05-01 17:28:00,
2013-05-01 13:29:00,68.3,26.8,30.37,SSW,194,2.0,12.0,21,0.00,,,0.00,Wunderground v.1.15,2013-05-01 17:29:00,
2013-05-01 13:30:00,68.4,29.1,30.37,SE,136,0.0,2.0,23,0.00,,,0.00,Wunderground v.1.15,2013-05-01 17:30:00,
2013-05-01 13:32:00,68.6,27.1,30.37,NNE,32,2.0,4.0,21,0.00,,,0.00,Wunderground v.1.15,2013-05-01 17:32:00,
2013-05-01 13:33:00,68.7,27.2,30.37,SSE,149,6.0,6.0,21,0.00,,,0.00,Wunderground v.1.15,2013-05-01 17:33:00,
2013-05-01 13:34:00,68.7,23.4,30.37,South,179,4.0,12.0,18,0.00,,,0.00,Wunderground v.1.15,2013-05-01 17:34:00,
2013-05-01 13:35:00,68.4,24.5,30.37,South,174,6.0,12.0,19,0.00,,,0.00,Wunderground v.1.15,2013-05-01 17:35:00,
2013-05-01 13:36:00,68.3,25.6,30.37,SSE,149,5.0,12.0,20,0.00,,,0.00,Wunderground v.1.15,2013-05-01 17:36:00,
2013-05-01 13:37:00,68.0,25.4,30.37,East,91,4.0,14.0,20,0.00,,,0.00,Wunderground v.1.15,2013-05-01 17:37:00,
2013-05-01 13:39:00,67.8,25.2,30.37,SSE,148,6.0,14.0,20,0.00,,,0.00,Wunderground v.1.15,2013-05-01 17:39:00,
2013-05-01 13:40:00,67.6,25.1,30.37,SW,224,5.0,8.0,20,0.00,,,0.00,Wunderground v.1.15,2013-05-01 17:40:00,
2013-05-01 13:41:00,67.6,25.1,30.37,ESE,123,0.0,9.0,20,0.00,,,0.00,Wunderground v.1.15,2013-05-01 17:41:00,
2013-05-01 13:43:00,67.5,25.0,30.37,NE,47,3.0,9.0,20,0.00,,,0.00,Wunderground v.1.15,2013-05-01 17:43:00,
2013-05-01 13:44:00,67.7,26.3,30.37,SSW,204,4.0,9.0,21,0.00,,,0.00,Wunderground v.1.15,2013-05-01 17:44:00,
2013-05-01 13:45:00,67.7,26.3,30.37,South,180,3.0,9.0,21,0.00,,,0.00,Wunderground v.1.15,2013-05-01 17:45:00,
2013-05-01 13:46:00,67.9,25.3,30.37,SE,126,4.0,9.0,20,0.00,,,0.00,Wunderground v.1.15,2013-05-01 17:46:00,
2013-05-01 13:48:00,67.8,24.0,30.37,SE,142,0.0,9.0,19,0.00,,,0.00,Wunderground v.1.15,2013-05-01 17:48:00,
2013-05-01 13:49:00,67.8,26.4,30.37,ENE,61,4.0,9.0,21,0.00,,,0.00,Wunderground v.1.15,2013-05-01 17:49:00,
2013-05-01 13:50:00,67.8,26.4,30.37,ENE,61,0.0,3.0,21,0.00,,,0.00,Wunderground v.1.15,2013-05-01 17:50:00,
2013-05-01 13:51:00,67.9,25.3,30.37,South,186,7.0,9.0,20,0.00,,,0.00,Wunderground v.1.15,2013-05-01 17:51:00,
2013-05-01 13:54:00,67.9,24.1,30.37,SSW,201,2.0,9.0,19,0.00,,,0.00,Wunderground v.1.15,2013-05-01 17:54:00,
2013-05-01 13:55:00,68.0,26.6,30.37,NNE,28,2.0,9.0,21,0.00,,,0.00,Wunderground v.1.15,2013-05-01 17:55:00,
2013-05-01 13:56:00,68.1,23.0,30.37,SE,132,4.0,9.0,18,0.00,,,0.00,Wunderground v.1.15,2013-05-01 17:56:00,
2013-05-01 13:59:00,68.2,25.6,30.37,WNW,294,1.0,10.0,20,0.00,,,0.00,Wunderground v.1.15,2013-05-01 17:59:00,
2013-05-01 14:00:00,68.4,23.2,30.37,South,170,9.0,12.0,18,0.00,,,0.00,Wunderground v.1.15,2013-05-01 18:00:00,
2013-05-01 14:01:00,68.5,24.6,30.37,SW,221,5.0,12.0,19,0.00,,,0.00,Wunderground v.1.15,2013-05-01 18:01:00,
2013-05-01 14:04:00,68.4,23.2,30.37,SSE,160,2.0,12.0,18,0.00,,,0.00,Wunderground v.1.15,2013-05-01 18:04:00,
2013-05-01 14:05:00,68.3,23.1,30.37,ENE,71,0.0,12.0,18,0.00,,,0.00,Wunderground v.1.15,2013-05-01 18:05:00,
2013-05-01 14:06:00,68.3,26.8,30.36,WSW,250,1.0,12.0,21,0.00,,,0.00,Wunderground v.1.15,2013-05-01 18:06:00,
2013-05-01 14:07:00,68.3,24.4,30.36,SE,144,8.0,12.0,19,0.00,,,0.00,Wunderground v.1.15,2013-05-01 18:07:00,
2013-05-01 14:09:00,68.4,24.5,30.36,SE,146,8.0,12.0,19,0.00,,,0.00,Wunderground v.1.15,2013-05-01 18:09:00,
2013-05-01 14:10:00,68.5,23.3,30.36,SSW,212,4.0,5.0,18,0.00,,,0.00,Wunderground v.1.15,2013-05-01 18:10:00,
2013-05-01 14:11:00,68.5,27.0,30.36,SSW,197,0.0,5.0,21,0.00,,,0.00,Wunderground v.1.15,2013-05-01 18:11:00,
2013-05-01 14:12:00,68.8,24.8,30.36,East,80,0.0,5.0,19,0.00,,,0.00,Wunderground v.1.15,2013-05-01 18:12:00,
2013-05-01 14:14:00,69.2,27.6,30.36,East,87,3.0,6.0,21,0.00,,,0.00,Wunderground v.1.15,2013-05-01 18:14:00,
2013-05-01 14:15:00,69.3,27.7,30.36,SSW,194,0.0,6.0,21,0.00,,,0.00,Wunderground v.1.15,2013-05-01 18:15:00,
2013-05-01 14:16:00,69.4,27.7,30.36,South,177,5.0,6.0,21,0.00,,,0.00,Wunderground v.1.15,2013-05-01 18:16:00,
2013-05-01 14:17:00,69.5,27.8,30.36,SSE,168,4.0,6.0,21,0.00,,,0.00,Wunderground v.1.15,2013-05-01 18:17:00,
2013-05-01 14:18:00,69.6,24.2,30.36,SE,130,5.0,7.0,18,0.00,,,0.00,Wunderground v.1.15,2013-05-01 18:18:00,
2013-05-01 14:20:00,69.4,25.3,30.36,South,178,0.0,3.0,19,0.00,,,0.00,Wunderground v.1.15,2013-05-01 18:20:00,
2013-05-01 14:21:00,69.2,25.1,30.36,ENE,78,0.0,5.0,19,0.00,,,0.00,Wunderground v.1.15,2013-05-01 18:21:00,
2013-05-01 14:22:00,69.2,25.1,30.36,North,355,5.0,5.0,19,0.00,,,0.00,Wunderground v.1.15,2013-05-01 18:22:00,
2013-05-01 14:23:00,69.2,26.4,30.36,ENE,60,0.0,8.0,20,0.00,,,0.00,Wunderground v.1.15,2013-05-01 18:23:00,
2013-05-01 14:25:00,69.3,26.5,30.36,South,171,0.0,8.0,20,0.00,,,0.00,Wunderground v.1.15,2013-05-01 18:25:00,
2013-05-01 14:26:00,69.4,25.3,30.36,ESE,107,1.0,8.0,19,0.00,,,0.00,Wunderground v.1.15,2013-05-01 18:26:00,
2013-05-01 14:27:00,69.5,24.1,30.36,ESE,109,0.0,8.0,18,0.00,,,0.00,Wunderground v.1.15,2013-05-01 18:27:00,
2013-05-01 14:28:00,69.7,25.6,30.36,ENE,69,2.0,8.0,19,0.00,,,0.00,Wunderground v.1.15,2013-05-01 18:28:00,
2013-05-01 14:29:00,69.7,24.3,30.36,SE,134,1.0,8.0,18,0.00,,,0.00,Wunderground v.1.15,2013-05-01 18:29:00,
2013-05-01 14:30:00,69.8,25.6,30.36,SW,217,2.0,5.0,19,0.00,,,0.00,Wunderground v.1.15,2013-05-01 18:30:00,
2013-05-01 14:31:00,69.8,23.0,30.36,SSW,192,4.0,10.0,17,0.00,,,0.00,Wunderground v.1.15,2013-05-01 18:31:00,
2013-05-01 14:32:00,69.7,22.9,30.36,South,179,5.0,10.0,17,0.00,,,0.00,Wunderground v.1.15,2013-05-01 18:32:00,
2013-05-01 14:33:00,69.3,23.9,30.36,SSE,164,4.0,10.0,18,0.00,,,0.00,Wunderground v.1.15,2013-05-01 18:33:00,
2013-05-01 14:34:00,69.2,25.1,30.36,SSW,203,5.0,10.0,19,0.00,,,0.00,Wunderground v.1.15,2013-05-01 18:34:00,
2013-05-01 14:36:00,69.2,23.9,30.36,South,190,4.0,10.0,18,0.00,,,0.00,Wunderground v.1.15,2013-05-01 18:36:00,
2013-05-01 14:37:00,69.2,23.9,30.36,South,188,3.0,10.0,18,0.00,,,0.00,Wunderground v.1.15,2013-05-01 18:37:00,
2013-05-01 14:38:00,69.3,25.2,30.36,SSW,205,3.0,10.0,19,0.00,,,0.00,Wunderground v.1.15,2013-05-01 18:38:00,
2013-05-01 14:39:00,69.3,23.9,30.36,SSE,163,2.0,10.0,18,0.00,,,0.00,Wunderground v.1.15,2013-05-01 18:39:00,
2013-05-01 14:41:00,69.3,27.7,30.36,SSW,206,2.0,4.0,21,0.00,,,0.00,Wunderground v.1.15,2013-05-01 18:41:00,
2013-05-01 14:42:00,69.3,27.7,30.36,South,183,2.0,4.0,21,0.00,,,0.00,Wunderground v.1.15,2013-05-01 18:42:00,
2013-05-01 14:44:00,69.3,25.2,30.36,ESE,103,0.0,4.0,19,0.00,,,0.00,Wunderground v.1.15,2013-05-01 18:44:00,
2013-05-01 14:45:00,69.3,25.2,30.36,North,360,0.0,4.0,19,0.00,,,0.00,Wunderground v.1.15,2013-05-01 18:45:00,
2013-05-01 14:46:00,69.3,25.2,30.36,SSW,206,5.0,6.0,19,0.00,,,0.00,Wunderground v.1.15,2013-05-01 18:46:00,
2013-05-01 14:47:00,69.2,26.4,30.36,SSW,213,6.0,8.0,20,0.00,,,0.00,Wunderground v.1.15,2013-05-01 18:47:00,
2013-05-01 14:48:00,69.2,26.4,30.36,SW,223,5.0,8.0,20,0.00,,,0.00,Wunderground v.1.15,2013-05-01 18:48:00,
2013-05-01 14:49:00,69.3,28.8,30.36,SSW,212,4.0,8.0,22,0.00,,,0.00,Wunderground v.1.15,2013-05-01 18:49:00,
2013-05-01 14:50:00,69.4,30.0,30.36,SSW,192,3.0,3.0,23,0.00,,,0.00,Wunderground v.1.15,2013-05-01 18:50:00,
2013-05-01 14:51:00,69.5,29.0,30.36,SE,130,1.0,5.0,22,0.00,,,0.00,Wunderground v.1.15,2013-05-01 18:51:00,
2013-05-01 14:53:00,69.7,26.8,30.36,South,188,2.0,5.0,20,0.00,,,0.00,Wunderground v.1.15,2013-05-01 18:53:00,
2013-05-01 14:54:00,69.8,29.2,30.36,South,184,6.0,7.0,22,0.00,,,0.00,Wunderground v.1.15,2013-05-01 18:54:00,
2013-05-01 14:56:00,69.9,27.0,30.36,South,173,7.0,9.0,20,0.00,,,0.00,Wunderground v.1.15,2013-05-01 18:56:00,
2013-05-01 14:58:00,69.4,26.6,30.36,SSW,202,6.0,12.0,20,0.00,,,0.00,Wunderground v.1.15,2013-05-01 18:58:00,
2013-05-01 15:00:00,69.4,27.7,30.36,East,95,5.0,12.0,21,0.00,,,0.00,Wunderground v.1.15,2013-05-01 19:00:00,
2013-05-01 15:01:00,69.5,27.8,30.36,SE,134,1.0,8.0,21,0.00,,,0.00,Wunderground v.1.15,2013-05-01 19:01:00,
2013-05-01 15:03:00,69.6,29.0,30.36,South,173,6.0,8.0,22,0.00,,,0.00,Wunderground v.1.15,2013-05-01 19:03:00,
2013-05-01 15:04:00,69.6,29.0,30.36,SSE,155,4.0,8.0,22,0.00,,,0.00,Wunderground v.1.15,2013-05-01 19:04:00,
2013-05-01 15:05:00,69.7,28.0,30.36,SSE,151,0.0,8.0,21,0.00,,,0.00,Wunderground v.1.15,2013-05-01 19:05:00,
2013-05-01 15:06:00,69.8,29.2,30.36,South,177,4.0,8.0,22,0.00,,,0.00,Wunderground v.1.15,2013-05-01 19:06:00,
2013-05-01 15:08:00,70.1,28.3,30.36,South,189,4.0,8.0,21,0.00,,,0.00,Wunderground v.1.15,2013-05-01 19:08:00,
2013-05-01 15:09:00,70.2,28.4,30.36,South,191,5.0,8.0,21,0.00,,,0.00,Wunderground v.1.15,2013-05-01 19:09:00,
2013-05-01 15:10:00,70.2,27.2,30.36,SSW,207,1.0,5.0,20,0.00,,,0.00,Wunderground v.1.15,2013-05-01 19:10:00,
2013-05-01 15:11:00,70.3,28.5,30.36,West,272,0.0,6.0,21,0.00,,,0.00,Wunderground v.1.15,2013-05-01 19:11:00,
2013-05-01 15:12:00,70.3,28.5,30.36,SSE,161,5.0,6.0,21,0.00,,,0.00,Wunderground v.1.15,2013-05-01 19:12:00,
2013-05-01 15:13:00,70.2,27.2,30.36,SW,226,0.0,6.0,20,0.00,,,0.00,Wunderground v.1.15,2013-05-01 19:13:00,
2013-05-01 15:14:00,70.2,31.7,30.36,East,89,0.0,6.0,24,0.00,,,0.00,Wunderground v.1.15,2013-05-01 19:14:00,
2013-05-01 15:15:00,70.4,27.4,30.36,SSE,155,4.0,6.0,20,0.00,,,0.00,Wunderground v.1.15,2013-05-01 19:15:00,
2013-05-01 15:17:00,70.7,28.8,30.36,South,189,0.0,6.0,21,0.00,,,0.00,Wunderground v.1.15,2013-05-01 19:17:00,
2013-05-01 15:18:00,70.8,26.5,30.36,East,96,1.0,6.0,19,0.00,,,0.00,Wunderground v.1.15,2013-05-01 19:18:00,
2013-05-01 15:19:00,70.8,26.5,30.36,South,178,0.0,6.0,19,0.00,,,0.00,Wunderground v.1.15,2013-05-01 19:19:00,
2013-05-01 15:21:00,70.9,30.1,30.35,WNW,287,2.0,4.0,22,0.00,,,0.00,Wunderground v.1.15,2013-05-01 19:21:00,
2013-05-01 15:22:00,71.0,30.2,30.35,ENE,72,2.0,7.0,22,0.00,,,0.00,Wunderground v.1.15,2013-05-01 19:22:00,
2013-05-01 15:24:00,71.1,29.2,30.35,South,180,1.0,7.0,21,0.00,,,0.00,Wunderground v.1.15,2013-05-01 19:24:00,
2013-05-01 15:26:00,71.3,28.1,30.35,SW,222,3.0,7.0,20,0.00,,,0.00,Wunderground v.1.15,2013-05-01 19:26:00,
2013-05-01 15:27:00,71.4,28.2,30.36,SSE,167,0.0,7.0,20,0.00,,,0.00,Wunderground v.1.15,2013-05-01 19:27:00,
2013-05-01 15:28:00,71.5,29.5,30.35,North,5,4.0,7.0,21,0.00,,,0.00,Wunderground v.1.15,2013-05-01 19:28:00,
2013-05-01 15:29:00,71.6,28.4,30.35,East,88,4.0,7.0,20,0.00,,,0.00,Wunderground v.1.15,2013-05-01 19:29:00,
2013-05-01 15:30:00,71.7,27.2,30.35,ESE,103,2.0,7.0,19,0.00,,,0.00,Wunderground v.1.15,2013-05-01 19:30:00,
2013-05-01 15:31:00,71.7,27.2,30.35,ESE,105,0.0,6.0,19,0.00,,,0.00,Wunderground v.1.15,2013-05-01 19:31:00,
2013-05-01 15:32:00,71.7,27.2,30.35,SW,223,0.0,6.0,19,0.00,,,0.00,Wunderground v.1.15,2013-05-01 19:32:00,
2013-05-01 15:33:00,71.6,28.4,30.35,NNE,31,3.0,6.0,20,0.00,,,0.00,Wunderground v.1.15,2013-05-01 19:33:00,
2013-05-01 15:35:00,71.4,29.4,30.35,South,171,2.0,7.0,21,0.00,,,0.00,Wunderground v.1.15,2013-05-01 19:35:00,
2013-05-01 15:36:00,71.3,26.9,30.35,SSE,158,2.0,7.0,19,0.00,,,0.00,Wunderground v.1.15,2013-05-01 19:36:00,
2013-05-01 15:37:00,71.1,29.2,30.35,North,5,4.0,7.0,21,0.00,,,0.00,Wunderground v.1.15,2013-05-01 19:37:00,
2013-05-01 15:38:00,71.1,30.3,30.35,ENE,70,7.0,9.0,22,0.00,,,0.00,Wunderground v.1.15,2013-05-01 19:38:00,
2013-05-01 15:40:00,71.0,30.2,30.35,SSE,155,1.0,3.0,22,0.00,,,0.00,Wunderground v.1.15,2013-05-01 19:40:00,
2013-05-01 15:41:00,71.0,30.2,30.35,SSE,162,1.0,3.0,22,0.00,,,0.00,Wunderground v.1.15,2013-05-01 19:41:00,
2013-05-01 15:44:00,71.0,27.9,30.35,North,9,8.0,9.0,20,0.00,,,0.00,Wunderground v.1.15,2013-05-01 19:44:00,
2013-05-01 15:45:00,70.9,27.8,30.35,NNW,339,0.0,10.0,20,0.00,,,0.00,Wunderground v.1.15,2013-05-01 19:45:00,
2013-05-01 15:46:00,70.9,27.8,30.35,NNE,31,0.0,10.0,20,0.00,,,0.00,Wunderground v.1.15,2013-05-01 19:46:00,
2013-05-01 15:47:00,71.0,26.6,30.35,SSW,194,1.0,10.0,19,0.00,,,0.00,Wunderground v.1.15,2013-05-01 19:47:00,
2013-05-01 15:49:00,71.0,27.9,30.35,East,86,3.0,10.0,20,0.00,,,0.00,Wunderground v.1.15,2013-05-01 19:49:00,
2013-05-01 15:51:00,71.1,28.0,30.35,ESE,121,4.0,5.0,20,0.00,,,0.00,Wunderground v.1.15,2013-05-01 19:51:00,
2013-05-01 15:52:00,71.0,26.6,30.35,NE,43,0.0,5.0,19,0.00,,,0.00,Wunderground v.1.15,2013-05-01 19:52:00,
2013-05-01 15:54:00,71.2,26.8,30.35,ENE,78,4.0,5.0,19,0.00,,,0.00,Wunderground v.1.15,2013-05-01 19:54:00,
2013-05-01 15:55:00,71.2,26.8,30.35,ENE,61,3.0,6.0,19,0.00,,,0.00,Wunderground v.1.15,2013-05-01 19:55:00,
2013-05-01 15:56:00,71.2,26.8,30.35,WSW,253,6.0,6.0,19,0.00,,,0.00,Wunderground v.1.15,2013-05-01 19:56:00,
2013-05-01 15:57:00,71.2,26.8,30.35,WSW,238,2.0,7.0,19,0.00,,,0.00,Wunderground v.1.15,2013-05-01 19:57:00,
2013-05-01 15:59:00,71.1,28.0,30.35,SSW,194,4.0,7.0,20,0.00,,,0.00,Wunderground v.1.15,2013-05-01 19:59:00,
2013-05-01 16:00:00,71.1,28.0,30.35,South,181,5.0,5.0,20,0.00,,,0.00,Wunderground v.1.15,2013-05-01 20:00:00,
2013-05-01 16:01:00,70.9,26.5,30.35,SE,142,0.0,6.0,19,0.00,,,0.00,Wunderground v.1.15,2013-05-01 20:01:00,
2013-05-01 16:02:00,71.0,27.9,30.35,SSW,200,5.0,6.0,20,0.00,,,0.00,Wunderground v.1.15,2013-05-01 20:02:00,
2013-05-01 16:05:00,70.7,27.6,30.35,SE,132,5.0,11.0,20,0.00,,,0.00,Wunderground v.1.15,2013-05-01 20:05:00,
2013-05-01 16:07:00,70.5,28.7,30.35,ESE,107,2.0,11.0,21,0.00,,,0.00,Wunderground v.1.15,2013-05-01 20:07:00,
2013-05-01 16:08:00,70.6,28.7,30.35,ESE,103,0.0,11.0,21,0.00,,,0.00,Wunderground v.1.15,2013-05-01 20:08:00,
2013-05-01 16:10:00,70.9,29.0,30.35,SE,132,4.0,5.0,21,0.00,,,0.00,Wunderground v.1.15,2013-05-01 20:10:00,
2013-05-01 16:12:00,71.1,26.7,30.35,SSE,162,6.0,6.0,19,0.00,,,0.00,Wunderground v.1.15,2013-05-01 20:12:00,
2013-05-01 16:13:00,71.0,26.6,30.35,SSW,196,3.0,8.0,19,0.00,,,0.00,Wunderground v.1.15,2013-05-01 20:13:00,
2013-05-01 16:15:00,70.7,26.4,30.35,ENE,75,5.0,8.0,19,0.00,,,0.00,Wunderground v.1.15,2013-05-01 20:15:00,
2013-05-01 16:16:00,70.6,26.3,30.35,East,94,5.0,8.0,19,0.00,,,0.00,Wunderground v.1.15,2013-05-01 20:16:00,
2013-05-01 16:17:00,70.5,27.5,30.35,NE,40,5.0,9.0,20,0.00,,,0.00,Wunderground v.1.15,2013-05-01 20:17:00,
2013-05-01 16:18:00,70.4,24.8,30.35,ENE,71,1.0,11.0,18,0.00,,,0.00,Wunderground v.1.15,2013-05-01 20:18:00,
2013-05-01 16:21:00,70.5,29.8,30.35,ENE,76,3.0,4.0,22,0.00,,,0.00,Wunderground v.1.15,2013-05-01 20:21:00,
2013-05-01 16:22:00,70.8,26.5,30.35,East,90,0.0,5.0,19,0.00,,,0.00,Wunderground v.1.15,2013-05-01 20:22:00,
2013-05-01 16:23:00,71.0,26.6,30.35,NE,34,1.0,5.0,19,0.00,,,0.00,Wunderground v.1.15,2013-05-01 20:23:00,
2013-05-01 16:24:00,71.0,26.6,30.35,SSE,156,2.0,7.0,19,0.00,,,0.00,Wunderground v.1.15,2013-05-01 20:24:00,
2013-05-01 16:26:00,71.1,25.4,30.35,SSE,150,5.0,7.0,18,0.00,,,0.00,Wunderground v.1.15,2013-05-01 20:26:00,
2013-05-01 16:28:00,70.9,25.2,30.35,ESE,105,1.0,7.0,18,0.00,,,0.00,Wunderground v.1.15,2013-05-01 20:28:00,
2013-05-01 16:29:00,70.9,23.9,30.35,East,94,0.0,7.0,17,0.00,,,0.00,Wunderground v.1.15,2013-05-01 20:29:00,
2013-05-01 16:31:00,70.9,25.2,30.35,NNE,31,1.0,3.0,18,0.00,,,0.00,Wunderground v.1.15,2013-05-01 20:31:00,
2013-05-01 16:33:00,71.1,25.4,30.35,NNE,29,1.0,3.0,18,0.00,,,0.00,Wunderground v.1.15,2013-05-01 20:33:00,
2013-05-01 16:34:00,71.2,25.5,30.35,ESE,121,5.0,6.0,18,0.00,,,0.00,Wunderground v.1.15,2013-05-01 20:34:00,
2013-05-01 16:36:00,71.3,25.6,30.35,ESE,103,4.0,6.0,18,0.00,,,0.00,Wunderground v.1.15,2013-05-01 20:36:00,
2013-05-01 16:38:00,71.2,24.1,30.35,SE,142,1.0,8.0,17,0.00,,,0.00,Wunderground v.1.15,2013-05-01 20:38:00,
2013-05-01 16:39:00,71.2,25.5,30.35,SE,140,0.0,8.0,18,0.00,,,0.00,Wunderground v.1.15,2013-05-01 20:39:00,
2013-05-01 16:40:00,71.2,25.5,30.35,SE,140,2.0,2.0,18,0.00,,,0.00,Wunderground v.1.15,2013-05-01 20:40:00,
2013-05-01 16:41:00,71.3,25.6,30.35,East,99,4.0,5.0,18,0.00,,,0.00,Wunderground v.1.15,2013-05-01 20:41:00,
2013-05-01 16:42:00,71.3,25.6,30.35,South,190,1.0,5.0,18,0.00,,,0.00,Wunderground v.1.15,2013-05-01 20:42:00,
2013-05-01 16:43:00,71.2,24.1,30.35,South,171,1.0,7.0,17,0.00,,,0.00,Wunderground v.1.15,2013-05-01 20:43:00,
2013-05-01 16:44:00,71.1,24.0,30.35,South,171,0.0,7.0,17,0.00,,,0.00,Wunderground v.1.15,2013-05-01 20:44:00,
2013-05-01 16:45:00,71.1,24.0,30.35,South,171,0.0,7.0,17,0.00,,,0.00,Wunderground v.1.15,2013-05-01 20:45:00,
2013-05-01 16:47:00,71.0,22.5,30.35,NNE,27,2.0,7.0,16,0.00,,,0.00,Wunderground v.1.15,2013-05-01 20:47:00,
2013-05-01 16:48:00,71.0,24.0,30.35,NNE,31,0.0,7.0,17,0.00,,,0.00,Wunderground v.1.15,2013-05-01 20:48:00,
2013-05-01 16:50:00,71.2,25.5,30.35,NNW,333,3.0,3.0,18,0.00,,,0.00,Wunderground v.1.15,2013-05-01 20:50:00,
2013-05-01 16:52:00,71.4,25.7,30.35,East,96,1.0,4.0,18,0.00,,,0.00,Wunderground v.1.15,2013-05-01 20:52:00,
2013-05-01 16:54:00,71.5,27.0,30.35,NE,38,2.0,4.0,19,0.00,,,0.00,Wunderground v.1.15,2013-05-01 20:54:00,
2013-05-01 16:55:00,71.5,27.0,30.35,ENE,65,5.0,5.0,19,0.00,,,0.00,Wunderground v.1.15,2013-05-01 20:55:00,
2013-05-01 16:57:00,71.9,24.7,30.35,SE,137,1.0,7.0,17,0.00,,,0.00,Wunderground v.1.15,2013-05-01 20:57:00,
2013-05-01 16:59:00,72.0,24.8,30.35,SSE,161,0.0,7.0,17,0.00,,,0.00,Wunderground v.1.15,2013-05-01 20:59:00,
2013-05-01 17:00:00,72.0,24.8,30.35,South,182,1.0,2.0,17,0.00,,,0.00,Wunderground v.1.15,2013-05-01 21:00:00,
2013-05-01 17:01:00,72.0,24.8,30.35,SSW,192,0.0,2.0,17,0.00,,,0.00,Wunderground v.1.15,2013-05-01 21:01:00,
2013-05-01 17:02:00,72.0,24.8,30.35,NE,53,0.0,4.0,17,0.00,,,0.00,Wunderground v.1.15,2013-05-01 21:02:00,
2013-05-01 17:03:00,72.1,24.8,30.35,NNE,19,0.0,4.0,17,0.00,,,0.00,Wunderground v.1.15,2013-05-01 21:03:00,
2013-05-01 17:04:00,72.1,24.8,30.35,NNE,24,4.0,7.0,17,0.00,,,0.00,Wunderground v.1.15,2013-05-01 21:04:00,
2013-05-01 17:05:00,72.2,27.6,30.35,NNE,22,6.0,7.0,19,0.00,,,0.00,Wunderground v.1.15,2013-05-01 21:05:00,
2013-05-01 17:06:00,72.3,26.4,30.35,NE,45,5.0,7.0,18,0.00,,,0.00,Wunderground v.1.15,2013-05-01 21:06:00,
2013-05-01 17:07:00,72.1,24.8,30.35,NNE,29,4.0,7.0,17,0.00,,,0.00,Wunderground v.1.15,2013-05-01 21:07:00,
2013-05-01 17:08:00,72.1,26.2,30.35,NE,47,6.0,7.0,18,0.00,,,0.00,Wunderground v.1.15,2013-05-01 21:08:00,
2013-05-01 17:09:00,72.0,24.8,30.35,NNW,327,1.0,7.0,17,0.00,,,0.00,Wunderground v.1.15,2013-05-01 21:09:00,
2013-05-01 17:11:00,71.9,26.1,30.35,SE,142,8.0,8.0,18,0.00,,,0.00,Wunderground v.1.15,2013-05-01 21:11:00,
2013-05-01 17:12:00,71.6,24.4,30.35,East,101,2.0,9.0,17,0.00,,,0.00,Wunderground v.1.15,2013-05-01 21:12:00,
2013-05-01 17:13:00,71.6,25.8,30.35,ESE,104,1.0,9.0,18,0.00,,,0.00,Wunderground v.1.15,2013-05-01 21:13:00,
2013-05-01 17:14:00,71.6,27.1,30.35,ESE,115,2.0,9.0,19,0.00,,,0.00,Wunderground v.1.15,2013-05-01 21:14:00,
2013-05-01 17:16:00,71.6,25.8,30.35,NNE,26,5.0,9.0,18,0.00,,,0.00,Wunderground v.1.15,2013-05-01 21:16:00,
2013-05-01 17:17:00,71.5,27.0,30.35,SE,132,5.0,9.0,19,0.00,,,0.00,Wunderground v.1.15,2013-05-01 21:17:00,
2013-05-01 17:19:00,71.5,24.4,30.35,SSE,163,4.0,9.0,17,0.00,,,0.00,Wunderground v.1.15,2013-05-01 21:19:00,
2013-05-01 17:21:00,71.3,25.6,30.35,East,82,3.0,4.0,18,0.00,,,0.00,Wunderground v.1.15,2013-05-01 21:21:00,
2013-05-01 17:22:00,71.3,24.2,30.35,SE,138,0.0,4.0,17,0.00,,,0.00,Wunderground v.1.15,2013-05-01 21:22:00,
2013-05-01 17:23:00,71.3,26.9,30.35,ENE,59,4.0,4.0,19,0.00,,,0.00,Wunderground v.1.15,2013-05-01 21:23:00,
2013-05-01 17:24:00,71.3,25.6,30.35,ESE,112,2.0,7.0,18,0.00,,,0.00,Wunderground v.1.15,2013-05-01 21:24:00,
2013-05-01 17:27:00,71.2,25.5,30.35,NE,37,1.0,7.0,18,0.00,,,0.00,Wunderground v.1.15,2013-05-01 21:27:00,
2013-05-01 17:28:00,71.2,25.5,30.36,ENE,60,0.0,10.0,18,0.00,,,0.00,Wunderground v.1.15,2013-05-01 21:28:00,
2013-05-01 17:29:00,71.2,25.5,30.36,East,80,0.0,10.0,18,0.00,,,0.00,Wunderground v.1.15,2013-05-01 21:29:00,
2013-05-01 17:32:00,71.3,25.6,30.36,SSE,155,5.0,5.0,18,0.00,,,0.00,Wunderground v.1.15,2013-05-01 21:32:00,
2013-05-01 17:33:00,71.3,25.6,30.36,SE,146,4.0,5.0,18,0.00,,,0.00,Wunderground v.1.15,2013-05-01 21:33:00,
2013-05-01 17:34:00,71.4,24.3,30.36,ESE,111,0.0,5.0,17,0.00,,,0.00,Wunderground v.1.15,2013-05-01 21:34:00,
2013-05-01 17:35:00,71.4,24.3,30.35,NNE,29,0.0,5.0,17,0.00,,,0.00,Wunderground v.1.15,2013-05-01 21:35:00,
2013-05-01 17:36:00,71.5,24.4,30.36,NNE,30,0.0,5.0,17,0.00,,,0.00,Wunderground v.1.15,2013-05-01 21:36:00,
2013-05-01 17:37:00,71.5,24.4,30.36,SSE,162,4.0,5.0,17,0.00,,,0.00,Wunderground v.1.15,2013-05-01 21:37:00,
2013-05-01 17:39:00,71.5,24.4,30.36,SE,132,0.0,5.0,17,0.00,,,0.00,Wunderground v.1.15,2013-05-01 21:39:00,
2013-05-01 17:40:00,71.5,25.7,30.35,SSE,158,2.0,4.0,18,0.00,,,0.00,Wunderground v.1.15,2013-05-01 21:40:00,
2013-05-01 17:41:00,71.5,27.0,30.36,ENE,65,1.0,4.0,19,0.00,,,0.00,Wunderground v.1.15,2013-05-01 21:41:00,
2013-05-01 17:42:00,71.4,24.3,30.36,NE,36,6.0,7.0,17,0.00,,,0.00,Wunderground v.1.15,2013-05-01 21:42:00,
2013-05-01 17:43:00,71.3,25.6,30.36,NNE,17,3.0,7.0,18,0.00,,,0.00,Wunderground v.1.15,2013-05-01 21:43:00,
2013-05-01 17:44:00,71.1,25.4,30.36,NE,52,4.0,7.0,18,0.00,,,0.00,Wunderground v.1.15,2013-05-01 21:44:00,
2013-05-01 17:45:00,70.9,26.5,30.36,North,9,0.0,7.0,19,0.00,,,0.00,Wunderground v.1.15,2013-05-01 21:45:00,
2013-05-01 17:46:00,70.9,26.5,30.36,East,90,1.0,7.0,19,0.00,,,0.00,Wunderground v.1.15,2013-05-01 21:46:00,
2013-05-01 17:48:00,70.9,25.2,30.36,NE,34,4.0,7.0,18,0.00,,,0.00,Wunderground v.1.15,2013-05-01 21:48:00,
2013-05-01 17:50:00,70.7,25.1,30.36,NE,38,0.0,3.0,18,0.00,,,0.00,Wunderground v.1.15,2013-05-01 21:50:00,
2013-05-01 17:52:00,70.6,26.3,30.36,SSE,159,0.0,5.0,19,0.00,,,0.00,Wunderground v.1.15,2013-05-01 21:52:00,
2013-05-01 17:53:00,70.7,26.4,30.36,SE,131,5.0,5.0,19,0.00,,,0.00,Wunderground v.1.15,2013-05-01 21:53:00,
2013-05-01 17:56:00,70.8,25.2,30.36,South,182,2.0,5.0,18,0.00,,,0.00,Wunderground v.1.15,2013-05-01 21:56:00,
2013-05-01 17:57:00,70.8,26.5,30.36,SE,137,1.0,5.0,19,0.00,,,0.00,Wunderground v.1.15,2013-05-01 21:57:00,
2013-05-01 17:58:00,70.9,27.8,30.36,South,181,1.0,5.0,20,0.00,,,0.00,Wunderground v.1.15,2013-05-01 21:58:00,
2013-05-01 18:01:00,71.1,25.4,30.36,ESE,114,2.0,4.0,18,0.00,,,0.00,Wunderground v.1.15,2013-05-01 22:01:00,
2013-05-01 18:02:00,71.1,26.7,30.35,NNE,15,4.0,6.0,19,0.00,,,0.00,Wunderground v.1.15,2013-05-01 22:02:00,
2013-05-01 18:03:00,71.1,24.0,30.35,North,360,2.0,6.0,17,0.00,,,0.00,Wunderground v.1.15,2013-05-01 22:03:00,
2013-05-01 18:04:00,71.0,24.0,30.35,North,5,3.0,6.0,17,0.00,,,0.00,Wunderground v.1.15,2013-05-01 22:04:00,
2013-05-01 18:06:00,70.8,25.2,30.36,ESE,106,0.0,7.0,18,0.00,,,0.00,Wunderground v.1.15,2013-05-01 22:06:00,
2013-05-01 18:07:00,70.8,25.2,30.36,ENE,68,0.0,7.0,18,0.00,,,0.00,Wunderground v.1.15,2013-05-01 22:07:00,
2013-05-01 18:08:00,70.7,25.1,30.36,NNE,30,1.0,7.0,18,0.00,,,0.00,Wunderground v.1.15,2013-05-01 22:08:00,
2013-05-01 18:09:00,70.7,25.1,30.36,NE,44,2.0,7.0,18,0.00,,,0.00,Wunderground v.1.15,2013-05-01 22:09:00,
2013-05-01 18:11:00,70.8,23.8,30.36,ENE,60,2.0,3.0,17,0.00,,,0.00,Wunderground v.1.15,2013-05-01 22:11:00,
2013-05-01 18:12:00,70.8,26.5,30.36,ENE,58,0.0,3.0,19,0.00,,,0.00,Wunderground v.1.15,2013-05-01 22:12:00,
2013-05-01 18:14:00,71.0,25.3,30.36,NE,47,0.0,3.0,18,0.00,,,0.00,Wunderground v.1.15,2013-05-01 22:14:00,
2013-05-01 18:17:00,71.1,25.4,30.36,SSW,213,0.0,3.0,18,0.00,,,0.00,Wunderground v.1.15,2013-05-01 22:17:00,
2013-05-01 18:19:00,71.2,25.5,30.36,North,351,1.0,6.0,18,0.00,,,0.00,Wunderground v.1.15,2013-05-01 22:19:00,
2013-05-01 18:20:00,71.2,25.5,30.36,North,360,0.0,6.0,18,0.00,,,0.00,Wunderground v.1.15,2013-05-01 22:20:00,
2013-05-01 18:22:00,71.0,24.0,30.35,ENE,61,3.0,4.0,17,0.00,,,0.00,Wunderground v.1.15,2013-05-01 22:22:00,
2013-05-01 18:24:00,70.8,26.5,30.35,NE,50,0.0,4.0,19,0.00,,,0.00,Wunderground v.1.15,2013-05-01 22:24:00,
2013-05-01 18:25:00,70.7,26.4,30.35,NE,52,0.0,4.0,19,0.00,,,0.00,Wunderground v.1.15,2013-05-01 22:25:00,
2013-05-01 18:27:00,70.7,25.1,30.35,SE,141,1.0,4.0,18,0.00,,,0.00,Wunderground v.1.15,2013-05-01 22:27:00,
2013-05-01 18:28:00,70.8,25.2,30.36,South,174,0.0,4.0,18,0.00,,,0.00,Wunderground v.1.15,2013-05-01 22:28:00,
2013-05-01 18:29:00,70.9,26.5,30.36,NNE,33,6.0,6.0,19,0.00,,,0.00,Wunderground v.1.15,2013-05-01 22:29:00,
2013-05-01 18:30:00,71.0,25.3,30.36,ENE,69,0.0,3.0,18,0.00,,,0.00,Wunderground v.1.15,2013-05-01 22:30:00,
2013-05-01 18:32:00,71.0,25.3,30.35,ENE,65,2.0,5.0,18,0.00,,,0.00,Wunderground v.1.15,2013-05-01 22:32:00,
2013-05-01 18:33:00,70.9,23.9,30.35,NNW,336,0.0,5.0,17,0.00,,,0.00,Wunderground v.1.15,2013-05-01 22:33:00,
2013-05-01 18:35:00,70.7,25.1,30.36,East,87,4.0,7.0,18,0.00,,,0.00,Wunderground v.1.15,2013-05-01 22:35:00,
2013-05-01 18:36:00,70.6,23.6,30.35,East,86,0.0,7.0,17,0.00,,,0.00,Wunderground v.1.15,2013-05-01 22:36:00,
2013-05-01 18:38:00,70.5,24.9,30.36,NE,41,6.0,7.0,18,0.00,,,0.00,Wunderground v.1.15,2013-05-01 22:38:00,
2013-05-01 18:40:00,70.3,24.8,30.36,NE,47,1.0,2.0,18,0.00,,,0.00,Wunderground v.1.15,2013-05-01 22:40:00,
2013-05-01 18:41:00,70.3,26.1,30.36,ENE,71,1.0,3.0,19,0.00,,,0.00,Wunderground v.1.15,2013-05-01 22:41:00,
2013-05-01 18:43:00,70.3,24.8,30.35,ENE,78,2.0,4.0,18,0.00,,,0.00,Wunderground v.1.15,2013-05-01 22:43:00,
2013-05-01 18:44:00,70.3,24.8,30.36,NE,56,2.0,4.0,18,0.00,,,0.00,Wunderground v.1.15,2013-05-01 22:44:00,
2013-05-01 18:45:00,70.3,24.8,30.36,NE,55,0.0,4.0,18,0.00,,,0.00,Wunderground v.1.15,2013-05-01 22:45:00,
2013-05-01 18:46:00,70.3,26.1,30.36,NE,55,0.0,4.0,19,0.00,,,0.00,Wunderground v.1.15,2013-05-01 22:46:00,
2013-05-01 18:48:00,70.3,23.4,30.36,ESE,108,1.0,5.0,17,0.00,,,0.00,Wunderground v.1.15,2013-05-01 22:48:00,
2013-05-01 18:49:00,70.3,23.4,30.36,ESE,111,1.0,5.0,17,0.00,,,0.00,Wunderground v.1.15,2013-05-01 22:49:00,
2013-05-01 18:50:00,70.1,23.2,30.36,SE,133,0.0,1.0,17,0.00,,,0.00,Wunderground v.1.15,2013-05-01 22:50:00,
2013-05-01 18:51:00,70.1,23.2,30.36,SE,133,0.0,1.0,17,0.00,,,0.00,Wunderground v.1.15,2013-05-01 22:51:00,
2013-05-01 18:53:00,70.2,24.7,30.36,South,180,0.0,2.0,18,0.00,,,0.00,Wunderground v.1.15,2013-05-01 22:53:00,
2013-05-01 18:54:00,70.1,24.6,30.36,South,181,0.0,2.0,18,0.00,,,0.00,Wunderground v.1.15,2013-05-01 22:54:00,
2013-05-01 18:56:00,70.2,26.0,30.36,ENE,76,0.0,2.0,19,0.00,,,0.00,Wunderground v.1.15,2013-05-01 22:56:00,
2013-05-01 18:59:00,70.3,24.8,30.36,NE,41,0.0,2.0,18,0.00,,,0.00,Wunderground v.1.15,2013-05-01 22:59:00,
2013-05-01 19:00:00,70.4,26.1,30.36,NE,41,0.0,2.0,19,0.00,,,0.00,Wunderground v.1.15,2013-05-01 23:00:00,
2013-05-01 19:01:00,70.4,24.8,30.36,East,99,0.0,3.0,18,0.00,,,0.00,Wunderground v.1.15,2013-05-01 23:01:00,
2013-05-01 19:02:00,70.4,24.8,30.36,SE,125,1.0,3.0,18,0.00,,,0.00,Wunderground v.1.15,2013-05-01 23:02:00,
2013-05-01 19:04:00,70.2,27.2,30.36,ESE,121,0.0,3.0,20,0.00,,,0.00,Wunderground v.1.15,2013-05-01 23:04:00,
2013-05-01 19:05:00,70.2,24.7,30.36,NE,51,0.0,3.0,18,0.00,,,0.00,Wunderground v.1.15,2013-05-01 23:05:00,
2013-05-01 19:06:00,70.0,24.5,30.36,ENE,59,0.0,3.0,18,0.00,,,0.00,Wunderground v.1.15,2013-05-01 23:06:00,
2013-05-01 19:07:00,70.0,25.8,30.36,ENE,70,0.0,3.0,19,0.00,,,0.00,Wunderground v.1.15,2013-05-01 23:07:00,
2013-05-01 19:09:00,69.8,24.3,30.36,East,92,0.0,3.0,18,0.00,,,0.00,Wunderground v.1.15,2013-05-01 23:09:00,
2013-05-01 19:10:00,69.7,24.3,30.36,East,92,0.0,0.0,18,0.00,,,0.00,Wunderground v.1.15,2013-05-01 23:10:00,
2013-05-01 19:12:00,69.5,24.1,30.36,East,92,0.0,0.0,18,0.00,,,0.00,Wunderground v.1.15,2013-05-01 23:12:00,
2013-05-01 19:14:00,69.3,23.9,30.36,ENE,63,0.0,1.0,18,0.00,,,0.00,Wunderground v.1.15,2013-05-01 23:14:00,
2013-05-01 19:15:00,69.3,25.2,30.36,ENE,63,0.0,1.0,19,0.00,,,0.00,Wunderground v.1.15,2013-05-01 23:15:00,
2013-05-01 19:16:00,69.2,25.1,30.36,SE,133,0.0,1.0,19,0.00,,,0.00,Wunderground v.1.15,2013-05-01 23:16:00,
2013-05-01 19:17:00,69.0,25.0,30.36,SE,138,0.0,1.0,19,0.00,,,0.00,Wunderground v.1.15,2013-05-01 23:17:00,
2013-05-01 19:18:00,69.0,25.0,30.36,SE,138,0.0,1.0,19,0.00,,,0.00,Wunderground v.1.15,2013-05-01 23:18:00,
2013-05-01 19:20:00,68.6,24.7,30.36,SE,131,0.0,0.0,19,0.00,,,0.00,Wunderground v.1.15,2013-05-01 23:20:00,
2013-05-01 19:21:00,68.4,24.5,30.36,SE,132,0.0,0.0,19,0.00,,,0.00,Wunderground v.1.15,2013-05-01 23:21:00,
2013-05-01 19:23:00,68.3,24.4,30.37,SE,131,0.0,0.0,19,0.00,,,0.00,Wunderground v.1.15,2013-05-01 23:23:00,
2013-05-01 19:25:00,68.2,24.3,30.37,ESE,108,0.0,1.0,19,0.00,,,0.00,Wunderground v.1.15,2013-05-01 23:25:00,
2013-05-01 19:26:00,68.1,25.5,30.37,East,98,0.0,1.0,20,0.00,,,0.00,Wunderground v.1.15,2013-05-01 23:26:00,
2013-05-01 19:29:00,68.0,25.4,30.37,ESE,103,0.0,1.0,20,0.00,,,0.00,Wunderground v.1.15,2013-05-01 23:29:00,
2013-05-01 19:30:00,67.8,25.2,30.37,ESE,102,0.0,0.0,20,0.00,,,0.00,Wunderground v.1.15,2013-05-01 23:30:00,
2013-05-01 19:31:00,67.8,25.2,30.36,East,101,0.0,0.0,20,0.00,,,0.00,Wunderground v.1.15,2013-05-01 23:31:00,
2013-05-01 19:34:00,67.6,25.1,30.36,East,99,0.0,1.0,20,0.00,,,0.00,Wunderground v.1.15,2013-05-01 23:34:00,
2013-05-01 19:35:00,67.4,28.3,30.36,East,99,0.0,1.0,23,0.00,,,0.00,Wunderground v.1.15,2013-05-01 23:35:00,
2013-05-01 19:36:00,67.4,28.3,30.36,ESE,105,0.0,1.0,23,0.00,,,0.00,Wunderground v.1.15,2013-05-01 23:36:00,
2013-05-01 19:39:00,67.2,25.9,30.37,ESE,105,0.0,1.0,21,0.00,,,0.00,Wunderground v.1.15,2013-05-01 23:39:00,
2013-05-01 19:41:00,67.0,25.7,30.37,ESE,105,0.0,0.0,21,0.00,,,0.00,Wunderground v.1.15,2013-05-01 23:41:00,
2013-05-01 19:44:00,66.6,25.4,30.37,ESE,111,0.0,0.0,21,0.00,,,0.00,Wunderground v.1.15,2013-05-01 23:44:00,
2013-05-01 19:45:00,66.5,25.3,30.37,ESE,109,0.0,0.0,21,0.00,,,0.00,Wunderground v.1.15,2013-05-01 23:45:00,
2013-05-01 19:46:00,66.3,25.2,30.37,ESE,103,0.0,1.0,21,0.00,,,0.00,Wunderground v.1.15,2013-05-01 23:46:00,
2013-05-01 19:48:00,66.1,26.1,30.37,ESE,103,0.0,1.0,22,0.00,,,0.00,Wunderground v.1.15,2013-05-01 23:48:00,
2013-05-01 19:49:00,65.9,27.0,30.37,East,100,0.0,1.0,23,0.00,,,0.00,Wunderground v.1.15,2013-05-01 23:49:00,
2013-05-01 19:50:00,65.8,26.9,30.37,East,100,0.0,0.0,23,0.00,,,0.00,Wunderground v.1.15,2013-05-01 23:50:00,
2013-05-01 19:51:00,65.5,26.7,30.37,East,100,0.0,0.0,23,0.00,,,0.00,Wunderground v.1.15,2013-05-01 23:51:00,
2013-05-01 19:53:00,65.0,26.3,30.37,East,86,0.0,1.0,23,0.00,,,0.00,Wunderground v.1.15,2013-05-01 23:53:00,
2013-05-01 19:54:00,64.9,26.2,30.37,East,90,0.0,1.0,23,0.00,,,0.00,Wunderground v.1.15,2013-05-01 23:54:00,
2013-05-01 19:55:00,64.8,26.1,30.37,East,87,0.0,1.0,23,0.00,,,0.00,Wunderground v.1.15,2013-05-01 23:55:00,
2013-05-01 19:56:00,64.5,25.8,30.37,East,85,0.0,1.0,23,0.00,,,0.00,Wunderground v.1.15,2013-05-01 23:56:00,
2013-05-01 19:57:00,64.4,26.8,30.37,East,84,0.0,1.0,24,0.00,,,0.00,Wunderground v.1.15,2013-05-01 23:57:00,
2013-05-01 19:58:00,64.2,25.6,30.37,ENE,74,0.0,2.0,23,0.00,,,0.00,Wunderground v.1.15,2013-05-01 23:58:00,
2013-05-01 20:00:00,64.1,26.5,30.37,East,92,0.0,0.0,24,0.00,,,0.00,Wunderground v.1.15,2013-05-02 00:00:00,
2013-05-01 20:01:00,63.9,27.4,30.37,East,88,0.0,1.0,25,0.00,,,0.00,Wunderground v.1.15,2013-05-02 00:01:00,
2013-05-01 20:02:00,63.8,26.3,30.37,East,85,0.0,1.0,24,0.00,,,0.00,Wunderground v.1.15,2013-05-02 00:02:00,
2013-05-01 20:03:00,63.7,26.2,30.38,East,95,0.0,1.0,24,0.00,,,0.00,Wunderground v.1.15,2013-05-02 00:03:00,
2013-05-01 20:05:00,63.5,26.0,30.38,East,82,0.0,1.0,24,0.00,,,0.00,Wunderground v.1.15,2013-05-02 00:05:00,
2013-05-01 20:07:00,63.3,26.8,30.38,East,88,0.0,1.0,25,0.00,,,0.00,Wunderground v.1.15,2013-05-02 00:07:00,
2013-05-01 20:08:00,63.2,26.8,30.38,East,83,0.0,1.0,25,0.00,,,0.00,Wunderground v.1.15,2013-05-02 00:08:00,
2013-05-01 20:09:00,63.1,26.7,30.38,ENE,78,1.0,3.0,25,0.00,,,0.00,Wunderground v.1.15,2013-05-02 00:09:00,
2013-05-01 20:10:00,63.1,25.7,30.38,ENE,69,0.0,1.0,24,0.00,,,0.00,Wunderground v.1.15,2013-05-02 00:10:00,
2013-05-01 20:12:00,63.0,26.6,30.38,ENE,76,1.0,2.0,25,0.00,,,0.00,Wunderground v.1.15,2013-05-02 00:12:00,
2013-05-01 20:13:00,63.0,25.6,30.38,East,85,0.0,2.0,24,0.00,,,0.00,Wunderground v.1.15,2013-05-02 00:13:00,
2013-05-01 20:14:00,63.0,26.6,30.38,East,84,0.0,2.0,25,0.00,,,0.00,Wunderground v.1.15,2013-05-02 00:14:00,
2013-05-01 20:15:00,62.9,26.5,30.38,ENE,78,0.0,2.0,25,0.00,,,0.00,Wunderground v.1.15,2013-05-02 00:15:00,
2013-05-01 20:19:00,62.8,26.4,30.38,East,84,0.0,4.0,25,0.00,,,0.00,Wunderground v.1.15,2013-05-02 00:19:00,
2013-05-01 20:20:00,62.8,26.4,30.38,ENE,67,0.0,0.0,25,0.00,,,0.00,Wunderground v.1.15,2013-05-02 00:20:00,
2013-05-01 20:21:00,62.8,26.4,30.38,ENE,57,1.0,1.0,25,0.00,,,0.00,Wunderground v.1.15,2013-05-02 00:21:00,
2013-05-01 20:24:00,62.7,27.3,30.38,ESE,105,0.0,2.0,26,0.00,,,0.00,Wunderground v.1.15,2013-05-02 00:24:00,
2013-05-01 20:25:00,62.7,26.3,30.38,ESE,105,0.0,2.0,25,0.00,,,0.00,Wunderground v.1.15,2013-05-02 00:25:00,
2013-05-01 20:26:00,62.6,26.2,30.38,ESE,105,0.0,2.0,25,0.00,,,0.00,Wunderground v.1.15,2013-05-02 00:26:00,
2013-05-01 20:29:00,62.5,26.2,30.38,ESE,107,0.0,2.0,25,0.00,,,0.00,Wunderground v.1.15,2013-05-02 00:29:00,
2013-05-01 20:30:00,62.4,26.1,30.38,East,85,1.0,1.0,25,0.00,,,0.00,Wunderground v.1.15,2013-05-02 00:30:00,
2013-05-01 20:31:00,62.3,26.9,30.38,East,82,0.0,2.0,26,0.00,,,0.00,Wunderground v.1.15,2013-05-02 00:31:00,
2013-05-01 20:32:00,62.2,26.9,30.38,East,85,1.0,2.0,26,0.00,,,0.00,Wunderground v.1.15,2013-05-02 00:32:00,
2013-05-01 20:34:00,62.1,26.8,30.38,ENE,74,2.0,3.0,26,0.00,,,0.00,Wunderground v.1.15,2013-05-02 00:34:00,
2013-05-01 20:35:00,62.0,26.7,30.38,East,82,0.0,4.0,26,0.00,,,0.00,Wunderground v.1.15,2013-05-02 00:35:00,
2013-05-01 20:36:00,61.9,27.5,30.38,East,82,0.0,4.0,27,0.00,,,0.00,Wunderground v.1.15,2013-05-02 00:36:00,
2013-05-01 20:37:00,61.9,27.5,30.38,East,80,0.0,4.0,27,0.00,,,0.00,Wunderground v.1.15,2013-05-02 00:37:00,
2013-05-01 20:39:00,61.7,27.3,30.39,ENE,75,0.0,4.0,27,0.00,,,0.00,Wunderground v.1.15,2013-05-02 00:39:00,
2013-05-01 20:40:00,61.6,27.3,30.39,ENE,77,0.0,1.0,27,0.00,,,0.00,Wunderground v.1.15,2013-05-02 00:40:00,
2013-05-01 20:41:00,61.6,27.3,30.39,East,92,2.0,5.0,27,0.00,,,0.00,Wunderground v.1.15,2013-05-02 00:41:00,
2013-05-01 20:42:00,61.6,27.3,30.39,ENE,68,0.0,5.0,27,0.00,,,0.00,Wunderground v.1.15,2013-05-02 00:42:00,
2013-05-01 20:45:00,61.4,27.1,30.39,ENE,76,1.0,5.0,27,0.00,,,0.00,Wunderground v.1.15,2013-05-02 00:45:00,
2013-05-01 20:46:00,61.3,27.9,30.39,ENE,73,0.0,5.0,28,0.00,,,0.00,Wunderground v.1.15,2013-05-02 00:46:00,
2013-05-01 20:48:00,61.2,27.8,30.39,East,80,0.0,5.0,28,0.00,,,0.00,Wunderground v.1.15,2013-05-02 00:48:00,
2013-05-01 20:50:00,61.1,27.7,30.39,NNE,28,1.0,1.0,28,0.00,,,0.00,Wunderground v.1.15,2013-05-02 00:50:00,
2013-05-01 20:51:00,61.0,27.6,30.39,East,80,2.0,2.0,28,0.00,,,0.00,Wunderground v.1.15,2013-05-02 00:51:00,
2013-05-01 20:52:00,61.0,27.6,30.39,East,83,0.0,3.0,28,0.00,,,0.00,Wunderground v.1.15,2013-05-02 00:52:00,
2013-05-01 20:53:00,61.0,27.6,30.39,ENE,72,4.0,5.0,28,0.00,,,0.00,Wunderground v.1.15,2013-05-02 00:53:00,
2013-05-01 20:55:00,60.9,27.5,30.39,East,88,0.0,5.0,28,0.00,,,0.00,Wunderground v.1.15,2013-05-02 00:55:00,
2013-05-01 20:56:00,60.9,27.5,30.39,East,88,0.0,5.0,28,0.00,,,0.00,Wunderground v.1.15,2013-05-02 00:56:00,
2013-05-01 20:57:00,60.9,27.5,30.39,East,88,0.0,5.0,28,0.00,,,0.00,Wunderground v.1.15,2013-05-02 00:57:00,
2013-05-01 20:58:00,60.8,28.3,30.39,East,82,0.0,5.0,29,0.00,,,0.00,Wunderground v.1.15,2013-05-02 00:58:00,
2013-05-01 21:01:00,60.5,28.1,30.39,East,90,4.0,5.0,29,0.00,,,0.00,Wunderground v.1.15,2013-05-02 01:01:00,
2013-05-01 21:02:00,60.5,28.9,30.39,ENE,66,3.0,5.0,30,0.00,,,0.00,Wunderground v.1.15,2013-05-02 01:02:00,
2013-05-01 21:03:00,60.5,28.1,30.39,ESE,118,0.0,5.0,29,0.00,,,0.00,Wunderground v.1.15,2013-05-02 01:03:00,
2013-05-01 21:06:00,60.5,28.1,30.39,East,84,2.0,5.0,29,0.00,,,0.00,Wunderground v.1.15,2013-05-02 01:06:00,
2013-05-01 21:07:00,60.5,28.1,30.39,East,84,0.0,5.0,29,0.00,,,0.00,Wunderground v.1.15,2013-05-02 01:07:00,
2013-05-01 21:08:00,60.5,28.1,30.39,ENE,59,0.0,5.0,29,0.00,,,0.00,Wunderground v.1.15,2013-05-02 01:08:00,
2013-05-01 21:11:00,60.5,28.1,30.39,ESE,105,0.0,5.0,29,0.00,,,0.00,Wunderground v.1.15,2013-05-02 01:11:00,
2013-05-01 21:12:00,60.5,28.1,30.39,ESE,105,0.0,5.0,29,0.00,,,0.00,Wunderground v.1.15,2013-05-02 01:12:00,
2013-05-01 21:13:00,60.5,28.1,30.39,ENE,74,0.0,5.0,29,0.00,,,0.00,Wunderground v.1.15,2013-05-02 01:13:00,
2013-05-01 21:14:00,60.5,28.1,30.39,East,84,0.0,5.0,29,0.00,,,0.00,Wunderground v.1.15,2013-05-02 01:14:00,
2013-05-01 21:16:00,60.5,28.1,30.39,ENE,70,5.0,8.0,29,0.00,,,0.00,Wunderground v.1.15,2013-05-02 01:16:00,
2013-05-01 21:17:00,60.6,28.1,30.39,East,90,4.0,8.0,29,0.00,,,0.00,Wunderground v.1.15,2013-05-02 01:17:00,
2013-05-01 21:18:00,60.6,28.1,30.39,ENE,70,4.0,8.0,29,0.00,,,0.00,Wunderground v.1.15,2013-05-02 01:18:00,
2013-05-01 21:19:00,60.7,28.2,30.39,East,82,1.0,8.0,29,0.00,,,0.00,Wunderground v.1.15,2013-05-02 01:19:00,
2013-05-01 21:21:00,60.7,28.2,30.39,SE,132,0.0,2.0,29,0.00,,,0.00,Wunderground v.1.15,2013-05-02 01:21:00,
2013-05-01 21:22:00,60.7,28.2,30.39,ESE,111,0.0,2.0,29,0.00,,,0.00,Wunderground v.1.15,2013-05-02 01:22:00,
2013-05-01 21:24:00,60.7,28.2,30.39,ENE,74,1.0,2.0,29,0.00,,,0.00,Wunderground v.1.15,2013-05-02 01:24:00,
2013-05-01 21:26:00,60.5,28.9,30.40,ESE,105,0.0,5.0,30,0.00,,,0.00,Wunderground v.1.15,2013-05-02 01:26:00,
2013-05-01 21:27:00,60.4,28.0,30.39,ESE,105,0.0,5.0,29,0.00,,,0.00,Wunderground v.1.15,2013-05-02 01:27:00,
2013-05-01 21:29:00,60.3,28.7,30.40,East,88,0.0,5.0,30,0.00,,,0.00,Wunderground v.1.15,2013-05-02 01:29:00,
2013-05-01 21:30:00,60.2,28.6,30.40,East,88,0.0,0.0,30,0.00,,,0.00,Wunderground v.1.15,2013-05-02 01:30:00,
2013-05-01 21:32:00,60.0,28.4,30.40,East,88,3.0,4.0,30,0.00,,,0.00,Wunderground v.1.15,2013-05-02 01:32:00,
2013-05-01 21:35:00,59.9,28.4,30.40,ESE,120,0.0,5.0,30,0.00,,,0.00,Wunderground v.1.15,2013-05-02 01:35:00,
2013-05-01 21:37:00,59.8,29.1,30.40,ENE,78,0.0,5.0,31,0.00,,,0.00,Wunderground v.1.15,2013-05-02 01:37:00,
2013-05-01 21:38:00,59.8,29.1,30.40,ENE,71,0.0,5.0,31,0.00,,,0.00,Wunderground v.1.15,2013-05-02 01:38:00,
2013-05-01 21:39:00,59.7,29.0,30.40,ENE,75,2.0,5.0,31,0.00,,,0.00,Wunderground v.1.15,2013-05-02 01:39:00,
2013-05-01 21:40:00,59.6,28.9,30.40,East,80,4.0,4.0,31,0.00,,,0.00,Wunderground v.1.15,2013-05-02 01:40:00,
2013-05-01 21:41:00,59.6,28.9,30.40,East,93,0.0,5.0,31,0.00,,,0.00,Wunderground v.1.15,2013-05-02 01:41:00,
2013-05-01 21:42:00,59.5,28.8,30.40,East,86,0.0,5.0,31,0.00,,,0.00,Wunderground v.1.15,2013-05-02 01:42:00,
2013-05-01 21:43:00,59.4,28.7,30.40,ENE,63,2.0,5.0,31,0.00,,,0.00,Wunderground v.1.15,2013-05-02 01:43:00,
2013-05-01 21:45:00,59.4,28.7,30.40,East,99,2.0,5.0,31,0.00,,,0.00,Wunderground v.1.15,2013-05-02 01:45:00,
2013-05-01 21:46:00,59.4,28.7,30.40,ENE,60,0.0,5.0,31,0.00,,,0.00,Wunderground v.1.15,2013-05-02 01:46:00,
2013-05-01 21:48:00,59.4,30.3,30.40,East,89,1.0,5.0,33,0.00,,,0.00,Wunderground v.1.15,2013-05-02 01:48:00,
2013-05-01 21:50:00,59.1,29.2,30.40,East,80,0.0,1.0,32,0.00,,,0.00,Wunderground v.1.15,2013-05-02 01:50:00,
2013-05-01 21:51:00,59.1,30.0,30.40,East,85,1.0,2.0,33,0.00,,,0.00,Wunderground v.1.15,2013-05-02 01:51:00,
2013-05-01 21:53:00,59.1,30.0,30.40,East,98,0.0,6.0,33,0.00,,,0.00,Wunderground v.1.15,2013-05-02 01:53:00,
2013-05-01 21:55:00,59.1,30.0,30.40,ENE,74,1.0,6.0,33,0.00,,,0.00,Wunderground v.1.15,2013-05-02 01:55:00,
2013-05-01 21:56:00,59.1,30.0,30.40,ENE,72,2.0,6.0,33,0.00,,,0.00,Wunderground v.1.15,2013-05-02 01:56:00,
2013-05-01 21:58:00,59.1,30.0,30.40,East,100,2.0,6.0,33,0.00,,,0.00,Wunderground v.1.15,2013-05-02 01:58:00,
2013-05-01 21:59:00,59.1,30.0,30.40,East,85,1.0,6.0,33,0.00,,,0.00,Wunderground v.1.15,2013-05-02 01:59:00,
2013-05-01 22:00:00,59.1,30.7,30.40,East,84,0.0,1.0,34,0.00,,,0.00,Wunderground v.1.15,2013-05-02 02:00:00,
2013-05-01 22:01:00,59.0,29.9,30.40,East,84,0.0,1.0,33,0.00,,,0.00,Wunderground v.1.15,2013-05-02 02:01:00,
2013-05-01 22:03:00,58.9,31.3,30.40,East,81,0.0,1.0,35,0.00,,,0.00,Wunderground v.1.15,2013-05-02 02:03:00,
2013-05-01 22:04:00,58.8,30.5,30.40,East,85,0.0,1.0,34,0.00,,,0.00,Wunderground v.1.15,2013-05-02 02:04:00,
2013-05-01 22:05:00,58.7,30.4,30.40,East,82,0.0,1.0,34,0.00,,,0.00,Wunderground v.1.15,2013-05-02 02:05:00,
2013-05-01 22:06:00,58.6,30.3,30.40,East,81,0.0,1.0,34,0.00,,,0.00,Wunderground v.1.15,2013-05-02 02:06:00,
2013-05-01 22:08:00,58.2,30.7,30.40,East,92,0.0,1.0,35,0.00,,,0.00,Wunderground v.1.15,2013-05-02 02:08:00,
2013-05-01 22:09:00,58.1,29.8,30.40,ENE,67,0.0,3.0,34,0.00,,,0.00,Wunderground v.1.15,2013-05-02 02:09:00,
2013-05-01 22:11:00,58.1,30.6,30.40,East,80,0.0,1.0,35,0.00,,,0.00,Wunderground v.1.15,2013-05-02 02:11:00,
2013-05-01 22:13:00,58.0,30.5,30.40,East,94,0.0,1.0,35,0.00,,,0.00,Wunderground v.1.15,2013-05-02 02:13:00,
2013-05-01 22:15:00,58.0,30.5,30.40,East,94,0.0,1.0,35,0.00,,,0.00,Wunderground v.1.15,2013-05-02 02:15:00,
2013-05-01 22:16:00,57.9,30.4,30.40,East,90,1.0,1.0,35,0.00,,,0.00,Wunderground v.1.15,2013-05-02 02:16:00,
2013-05-01 22:17:00,57.8,30.3,30.40,East,82,1.0,1.0,35,0.00,,,0.00,Wunderground v.1.15,2013-05-02 02:17:00,
2013-05-01 22:19:00,57.7,30.2,30.40,ENE,78,0.0,2.0,35,0.00,,,0.00,Wunderground v.1.15,2013-05-02 02:19:00,
2013-05-01 22:20:00,57.6,30.8,30.40,East,83,0.0,2.0,36,0.00,,,0.00,Wunderground v.1.15,2013-05-02 02:20:00,
2013-05-01 22:22:00,57.4,31.3,30.40,East,83,0.0,2.0,37,0.00,,,0.00,Wunderground v.1.15,2013-05-02 02:22:00,
2013-05-01 22:24:00,57.2,30.5,30.40,East,84,0.0,2.0,36,0.00,,,0.00,Wunderground v.1.15,2013-05-02 02:24:00,
2013-05-01 22:25:00,57.0,31.0,30.40,East,84,0.0,2.0,37,0.00,,,0.00,Wunderground v.1.15,2013-05-02 02:25:00,
2013-05-01 22:27:00,56.8,30.8,30.40,ENE,76,1.0,2.0,37,0.00,,,0.00,Wunderground v.1.15,2013-05-02 02:27:00,
2013-05-01 22:29:00,56.7,30.7,30.40,East,84,0.0,4.0,37,0.00,,,0.00,Wunderground v.1.15,2013-05-02 02:29:00,
2013-05-01 22:30:00,56.8,30.8,30.40,East,86,2.0,2.0,37,0.00,,,0.00,Wunderground v.1.15,2013-05-02 02:30:00,
2013-05-01 22:32:00,56.8,31.4,30.40,East,80,1.0,4.0,38,0.00,,,0.00,Wunderground v.1.15,2013-05-02 02:32:00,
2013-05-01 22:34:00,56.7,31.4,30.40,East,86,0.0,4.0,38,0.00,,,0.00,Wunderground v.1.15,2013-05-02 02:34:00,
2013-05-01 22:35:00,56.6,31.3,30.40,East,92,0.0,4.0,38,0.00,,,0.00,Wunderground v.1.15,2013-05-02 02:35:00,
2013-05-01 22:38:00,56.4,31.7,30.40,East,82,0.0,4.0,39,0.00,,,0.00,Wunderground v.1.15,2013-05-02 02:38:00,
2013-05-01 22:39:00,56.3,31.0,30.40,East,87,2.0,4.0,38,0.00,,,0.00,Wunderground v.1.15,2013-05-02 02:39:00,
2013-05-01 22:40:00,56.2,31.5,30.40,East,82,1.0,1.0,39,0.00,,,0.00,Wunderground v.1.15,2013-05-02 02:40:00,
2013-05-01 22:43:00,56.1,31.5,30.40,East,82,0.0,2.0,39,0.00,,,0.00,Wunderground v.1.15,2013-05-02 02:43:00,
2013-05-01 22:44:00,56.0,31.4,30.40,East,80,0.0,2.0,39,0.00,,,0.00,Wunderground v.1.15,2013-05-02 02:44:00,
2013-05-01 22:45:00,56.0,31.4,30.40,ENE,78,0.0,2.0,39,0.00,,,0.00,Wunderground v.1.15,2013-05-02 02:45:00,
2013-05-01 22:46:00,56.0,32.0,30.40,ENE,67,4.0,6.0,40,0.00,,,0.00,Wunderground v.1.15,2013-05-02 02:46:00,
2013-05-01 22:48:00,56.1,32.1,30.40,ENE,71,0.0,6.0,40,0.00,,,0.00,Wunderground v.1.15,2013-05-02 02:48:00,
2013-05-01 22:49:00,56.1,32.1,30.40,ENE,67,0.0,6.0,40,0.00,,,0.00,Wunderground v.1.15,2013-05-02 02:49:00,
2013-05-01 22:50:00,56.1,32.1,30.40,ENE,64,4.0,4.0,40,0.00,,,0.00,Wunderground v.1.15,2013-05-02 02:50:00,
2013-05-01 22:51:00,56.2,32.8,30.40,East,93,0.0,4.0,41,0.00,,,0.00,Wunderground v.1.15,2013-05-02 02:51:00,
2013-05-01 22:53:00,56.4,33.0,30.40,NE,46,2.0,4.0,41,0.00,,,0.00,Wunderground v.1.15,2013-05-02 02:53:00,
2013-05-01 22:54:00,56.4,33.0,30.40,ENE,72,0.0,4.0,41,0.00,,,0.00,Wunderground v.1.15,2013-05-02 02:54:00,
2013-05-01 22:55:00,56.5,33.1,30.40,SSW,213,2.0,6.0,41,0.00,,,0.00,Wunderground v.1.15,2013-05-02 02:55:00,
2013-05-01 22:57:00,56.7,33.8,30.39,South,169,7.0,7.0,42,0.00,,,0.00,Wunderground v.1.15,2013-05-02 02:57:00,
2013-05-01 22:59:00,57.0,34.7,30.39,SSE,161,1.0,8.0,43,0.00,,,0.00,Wunderground v.1.15,2013-05-02 02:59:00,
2013-05-01 23:00:00,57.2,34.9,30.39,ESE,109,6.0,6.0,43,0.00,,,0.00,Wunderground v.1.15,2013-05-02 03:00:00,
2013-05-01 23:02:00,57.3,35.6,30.39,SSE,165,4.0,12.0,44,0.00,,,0.00,Wunderground v.1.15,2013-05-02 03:02:00,
2013-05-01 23:04:00,57.5,35.7,30.39,East,100,0.0,12.0,44,0.00,,,0.00,Wunderground v.1.15,2013-05-02 03:04:00,
2013-05-01 23:05:00,57.5,35.7,30.39,ENE,62,0.0,12.0,44,0.00,,,0.00,Wunderground v.1.15,2013-05-02 03:05:00,
2013-05-01 23:06:00,57.5,35.7,30.39,SSE,150,0.0,12.0,44,0.00,,,0.00,Wunderground v.1.15,2013-05-02 03:06:00,
2013-05-01 23:08:00,57.4,35.6,30.39,ESE,105,2.0,12.0,44,0.00,,,0.00,Wunderground v.1.15,2013-05-02 03:08:00,
2013-05-01 23:10:00,57.3,35.6,30.39,East,94,0.0,2.0,44,0.00,,,0.00,Wunderground v.1.15,2013-05-02 03:10:00,
2013-05-01 23:11:00,57.3,35.6,30.39,ENE,76,0.0,2.0,44,0.00,,,0.00,Wunderground v.1.15,2013-05-02 03:11:00,
2013-05-01 23:14:00,57.2,34.9,30.39,ESE,107,0.0,2.0,43,0.00,,,0.00,Wunderground v.1.15,2013-05-02 03:14:00,
2013-05-01 23:15:00,57.1,35.4,30.39,East,86,0.0,2.0,44,0.00,,,0.00,Wunderground v.1.15,2013-05-02 03:15:00,
2013-05-01 23:16:00,57.1,35.4,30.39,East,82,0.0,2.0,44,0.00,,,0.00,Wunderground v.1.15,2013-05-02 03:16:00,
2013-05-01 23:17:00,57.0,34.7,30.39,East,90,0.0,2.0,43,0.00,,,0.00,Wunderground v.1.15,2013-05-02 03:17:00,
2013-05-01 23:19:00,56.8,35.1,30.39,East,84,0.0,2.0,44,0.00,,,0.00,Wunderground v.1.15,2013-05-02 03:19:00,
2013-05-01 23:21:00,56.5,35.4,30.39,SSW,199,2.0,6.0,45,0.00,,,0.00,Wunderground v.1.15,2013-05-02 03:21:00,
2013-05-01 23:22:00,56.5,35.4,30.39,SSE,155,0.0,6.0,45,0.00,,,0.00,Wunderground v.1.15,2013-05-02 03:22:00,
2013-05-01 23:23:00,56.4,35.3,30.39,ESE,110,0.0,6.0,45,0.00,,,0.00,Wunderground v.1.15,2013-05-02 03:23:00,
2013-05-01 23:25:00,56.3,35.2,30.39,SSE,159,1.0,6.0,45,0.00,,,0.00,Wunderground v.1.15,2013-05-02 03:25:00,
2013-05-01 23:26:00,56.3,35.8,30.39,WSW,244,0.0,6.0,46,0.00,,,0.00,Wunderground v.1.15,2013-05-02 03:26:00,
2013-05-01 23:27:00,56.3,35.8,30.39,ESE,107,1.0,6.0,46,0.00,,,0.00,Wunderground v.1.15,2013-05-02 03:27:00,
2013-05-01 23:28:00,56.3,35.8,30.39,ESE,103,0.0,6.0,46,0.00,,,0.00,Wunderground v.1.15,2013-05-02 03:28:00,
2013-05-01 23:30:00,56.3,35.8,30.39,NNE,20,0.0,1.0,46,0.00,,,0.00,Wunderground v.1.15,2013-05-02 03:30:00,
2013-05-01 23:32:00,56.4,35.9,30.39,SE,130,4.0,4.0,46,0.00,,,0.00,Wunderground v.1.15,2013-05-02 03:32:00,
2013-05-01 23:33:00,56.4,36.4,30.39,ESE,119,0.0,4.0,47,0.00,,,0.00,Wunderground v.1.15,2013-05-02 03:33:00,
2013-05-01 23:35:00,56.4,36.4,30.39,ESE,105,0.0,4.0,47,0.00,,,0.00,Wunderground v.1.15,2013-05-02 03:35:00,
2013-05-01 23:37:00,56.3,35.8,30.39,ENE,76,0.0,4.0,46,0.00,,,0.00,Wunderground v.1.15,2013-05-02 03:37:00,
2013-05-01 23:38:00,56.3,35.8,30.39,NE,45,0.0,4.0,46,0.00,,,0.00,Wunderground v.1.15,2013-05-02 03:38:00,
2013-05-01 23:39:00,56.2,35.7,30.40,NE,53,0.0,4.0,46,0.00,,,0.00,Wunderground v.1.15,2013-05-02 03:39:00,
2013-05-01 23:40:00,56.0,36.0,30.40,NE,50,0.0,2.0,47,0.00,,,0.00,Wunderground v.1.15,2013-05-02 03:40:00,
2013-05-01 23:42:00,56.0,36.6,30.39,East,98,0.0,4.0,48,0.00,,,0.00,Wunderground v.1.15,2013-05-02 03:42:00,
2013-05-01 23:43:00,56.0,36.6,30.39,East,98,1.0,4.0,48,0.00,,,0.00,Wunderground v.1.15,2013-05-02 03:43:00,
2013-05-01 23:44:00,56.0,36.6,30.39,East,98,0.0,4.0,48,0.00,,,0.00,Wunderground v.1.15,2013-05-02 03:44:00,
2013-05-01 23:45:00,55.8,36.4,30.39,East,92,1.0,4.0,48,0.00,,,0.00,Wunderground v.1.15,2013-05-02 03:45:00,
2013-05-01 23:47:00,55.6,36.2,30.39,East,80,0.0,4.0,48,0.00,,,0.00,Wunderground v.1.15,2013-05-02 03:47:00,
2013-05-01 23:48:00,55.6,36.2,30.39,ENE,71,1.0,4.0,48,0.00,,,0.00,Wunderground v.1.15,2013-05-02 03:48:00,
2013-05-01 23:49:00,55.5,36.6,30.39,ENE,65,0.0,4.0,49,0.00,,,0.00,Wunderground v.1.15,2013-05-02 03:49:00,
2013-05-01 23:51:00,55.4,36.5,30.39,ESE,109,1.0,4.0,49,0.00,,,0.00,Wunderground v.1.15,2013-05-02 03:51:00,
2013-05-01 23:53:00,55.1,36.3,30.39,East,86,0.0,4.0,49,0.00,,,0.00,Wunderground v.1.15,2013-05-02 03:53:00,
2013-05-01 23:54:00,55.0,36.7,30.39,East,88,0.0,4.0,50,0.00,,,0.00,Wunderground v.1.15,2013-05-02 03:54:00,
2013-05-01 23:56:00,55.0,36.7,30.39,East,86,0.0,4.0,50,0.00,,,0.00,Wunderground v.1.15,2013-05-02 03:56:00,
2013-05-01 23:59:00,55.0,36.7,30.39,East,82,0.0,4.0,50,0.00,,,0.00,Wunderground v.1.15,2013-05-02 03:59:00,